KC5DAQ-22 Weather Reports


Display with metric or nautical units.
time (UTC)temp
F
wind
direction
speed
MPH
gust
MPH
rain 1hr
in
rain 24hr
in
rain mn
in
humidity
%
barometer
mb
20260510033634 75 34 7.0 12.0 0.00 0.00 0.00 84 1009.6
20260510033536 75 32 8.0 12.0 0.00 0.00 0.00 84 1009.6
20260510033434 75 34 7.0 12.0 0.00 0.00 0.00 84 1009.7
20260510033334 75 31 6.0 12.0 0.00 0.00 0.00 84 1009.6
20260510033235 75 28 7.0 12.0 0.00 0.00 0.00 84 1009.6
20260510033135 75 38 8.0 12.0 0.00 0.00 0.00 84 1009.6
20260510033034 75 31 7.0 12.0 0.00 0.00 0.00 84 1009.6
20260510032934 75 34 8.0 12.0 0.00 0.00 0.00 83 1009.6
20260510032836 75 28 9.0 11.0 0.00 0.00 0.00 83 1009.7
20260510032734 75 37 8.0 11.0 0.00 0.00 0.00 83 1009.8
20260510032634 75 25 7.0 11.0 0.00 0.00 0.00 83 1009.8
20260510032536 75 27 6.0 11.0 0.00 0.00 0.00 83 1009.8
20260510032434 75 34 8.0 12.0 0.00 0.00 0.00 83 1009.8
20260510032334 75 27 7.0 12.0 0.00 0.00 0.00 83 1009.8
20260510032235 75 28 6.0 12.0 0.00 0.00 0.00 82 1009.8
20260510032134 75 24 6.0 12.0 0.00 0.00 0.00 82 1009.9
20260510032035 75 27 6.0 12.0 0.00 0.00 0.00 82 1009.9
20260510031934 75 31 6.0 13.0 0.00 0.00 0.00 82 1010.0
20260510031835 75 27 6.0 13.0 0.00 0.00 0.00 82 1010.0
20260510031734 75 27 7.0 13.0 0.00 0.00 0.00 82 1010.0
20260510031634 75 30 8.0 14.0 0.00 0.00 0.00 82 1010.0
20260510031534 75 31 6.0 14.0 0.00 0.00 0.00 82 1010.1
20260510031434 75 30 6.0 14.0 0.00 0.00 0.00 82 1010.2
20260510031335 75 30 7.0 14.0 0.00 0.00 0.00 82 1010.1
20260510031234 75 28 7.0 14.0 0.00 0.00 0.00 82 1010.2
20260510031136 75 25 9.0 14.0 0.00 0.00 0.00 81 1010.2
20260510031034 75 30 9.0 14.0 0.00 0.00 0.00 81 1010.2
20260510030935 75 28 8.0 14.0 0.00 0.00 0.00 81 1010.3
20260510030835 75 21 9.0 17.0 0.00 0.00 0.00 81 1010.3
20260510030735 76 27 8.0 18.0 0.00 0.00 0.00 81 1010.4
20260510030634 76 23 8.0 18.0 0.00 0.00 0.00 81 1010.3
20260510030534 76 25 8.0 18.0 0.00 0.00 0.00 80 1010.2
20260510030435 76 23 8.0 18.0 0.00 0.00 0.00 80 1010.2
20260510030333 76 30 7.0 18.0 0.00 0.00 0.00 80 1010.2
20260510030233 75 20 6.0 18.0 0.00 0.00 0.00 80 1010.1
20260510030135 75 30 8.0 18.0 0.00 0.00 0.00 80 1010.0
20260510030033 76 27 10.0 18.0 0.00 0.00 0.00 80 1010.0
20260510025934 75 35 11.0 18.0 0.00 0.00 0.00 79 1010.0
20260510025833 75 27 11.0 18.0 0.00 0.00 0.00 79 1009.9
20260510025735 75 28 11.0 19.0 0.00 0.00 0.00 79 1009.9
20260510025633 75 39 9.0 19.0 0.00 0.00 0.00 79 1009.9
20260510025533 75 28 9.0 19.0 0.00 0.00 0.00 79 1009.6
20260510025435 75 32 11.0 19.0 0.00 0.00 0.00 79 1009.6
20260510025333 76 93 10.0 19.0 0.00 0.00 0.00 79 1009.7
20260510025233 76 92 10.0 19.0 0.00 0.00 0.00 79 1009.7
20260510025133 76 96 12.0 19.0 0.00 0.00 0.00 79 1009.7
20260510025034 76 100 13.0 20.0 0.00 0.00 0.00 79 1009.7
20260510024933 76 73 13.0 20.0 0.00 0.00 0.00 79 1009.7
20260510024834 76 114 12.0 20.0 0.00 0.00 0.00 79 1009.7
20260510024734 76 89 11.0 21.0 0.00 0.00 0.00 79 1009.8
20260510024633 76 69 12.0 21.0 0.00 0.00 0.00 79 1009.8
20260510024533 76 78 12.0 21.0 0.00 0.00 0.00 79 1009.8
20260510024433 76 106 12.0 21.0 0.00 0.00 0.00 79 1009.8
20260510024333 76 75 13.0 21.0 0.00 0.00 0.00 80 1009.7
20260510024233 76 92 13.0 21.0 0.00 0.00 0.00 80 1009.8
20260510024133 76 99 13.0 26.0 0.00 0.00 0.00 80 1009.7
20260510024034 76 87 11.0 26.0 0.00 0.00 0.00 80 1009.7
20260510023933 76 92 13.0 26.0 0.00 0.00 0.00 80 1009.7
20260510023833 76 113 14.0 26.0 0.00 0.00 0.00 81 1009.6
20260510023733 77 102 13.0 26.0 0.00 0.00 0.00 81 1009.6
20260510023634 77 94 14.0 26.0 0.00 0.00 0.00 81 1009.5
20260510023533 77 85 14.0 26.0 0.00 0.00 0.00 82 1009.6
20260510023433 77 104 13.0 26.0 0.00 0.00 0.00 82 1009.6
20260510023334 77 89 14.0 26.0 0.00 0.00 0.00 82 1009.6
20260510023234 78 79 15.0 26.0 0.00 0.00 0.00 83 1009.7
20260510023133 78 85 15.0 26.0 0.00 0.00 0.00 84 1009.6
20260510023034 78 86 15.0 26.0 0.00 0.00 0.00 84 1009.6
20260510022934 78 93 15.0 26.0 0.00 0.00 0.00 85 1009.5
20260510022833 78 92 13.0 26.0 0.00 0.00 0.00 85 1009.5
20260510022733 79 123 14.0 26.0 0.00 0.00 0.00 85 1009.3
20260510022634 79 106 15.0 26.0 0.00 0.00 0.00 85 1009.3
20260510022533 79 103 12.0 28.0 0.00 0.00 0.00 86 1009.3
20260510022432 79 86 11.0 28.0 0.00 0.00 0.00 86 1009.2
20260510022334 79 80 11.0 28.0 0.00 0.00 0.00 86 1009.1
20260510022233 79 86 12.0 28.0 0.00 0.00 0.00 86 1009.1
20260510022133 79 92 13.0 28.0 0.00 0.00 0.00 86 1009.1
20260510022033 80 99 15.0 28.0 0.00 0.00 0.00 86 1009.1
20260510021932 80 104 16.0 28.0 0.00 0.00 0.00 86 1009.1
20260510021832 80 111 15.0 28.0 0.00 0.00 0.00 86 1009.0
20260510021732 80 127 17.0 28.0 0.00 0.00 0.00 85 1009.0
20260510021633 80 107 18.0 28.0 0.00 0.00 0.00 85 1009.0
20260510021532 80 110 13.0 23.0 0.00 0.00 0.00 85 1008.9
20260510021432 80 114 12.0 23.0 0.00 0.00 0.00 85 1008.9
20260510021333 80 90 11.0 23.0 0.00 0.00 0.00 85 1008.9
20260510021233 81 114 12.0 23.0 0.00 0.00 0.00 85 1008.9
20260510021132 81 130 13.0 23.0 0.00 0.00 0.00 85 1008.9
20260510021032 81 103 14.0 23.0 0.00 0.00 0.00 84 1008.8
20260510020931 81 120 14.0 23.0 0.00 0.00 0.00 84 1008.8
20260510020832 81 107 14.0 21.0 0.00 0.00 0.00 84 1008.7
20260510020731 81 114 15.0 21.0 0.00 0.00 0.00 84 1008.8
20260510020630 81 123 14.0 21.0 0.00 0.00 0.00 83 1008.7
20260510020528 81 87 11.0 17.0 0.00 0.00 0.00 83 1008.7
20260510020425 81 120 10.0 17.0 0.00 0.00 0.00 83 1008.6
20260510020325 81 110 11.0 17.0 0.00 0.00 0.00 82 1008.5
20260510020225 81 137 12.0 17.0 0.00 0.00 0.00 82 1008.5
20260510020124 81 116 10.0 17.0 0.00 0.00 0.00 81 1008.4
20260510020025 81 128 10.0 17.0 0.00 0.00 0.00 81 1008.4
20260510015919 82 154 10.0 17.0 0.00 0.00 0.00 81 1008.3
20260510015816 82 118 10.0 17.0 0.00 0.00 0.00 80 1008.3
20260510015716 82 121 12.0 17.0 0.00 0.00 0.00 80 1008.2
20260510015615 82 94 11.0 17.0 0.00 0.00 0.00 79 1008.3
20260510015513 82 102 9.0 16.0 0.00 0.00 0.00 79 1008.2
20260510015411 82 89 9.0 16.0 0.00 0.00 0.00 78 1008.1
20260510015310 82 111 11.0 16.0 0.00 0.00 0.00 78 1008.2
20260510015208 82 97 11.0 15.0 0.00 0.00 0.00 77 1008.1
20260510015107 82 100 10.0 14.0 0.00 0.00 0.00 75 1008.1
20260510015007 82 102 6.0 12.0 0.00 0.00 0.00 74 1008.1
20260510014904 81 152 4.0 7.0 0.00 0.00 0.00 71 1008.1
20260510014802 81 71 3.0 7.0 0.00 0.00 0.00 69 1008.0
20260510014701 81 296 1.0 3.0 0.00 0.00 0.00 69 1007.8
20260510014602 81 296 1.0 3.0 0.00 0.00 0.00 69 1007.8
20260510014502 81 296 1.0 3.0 0.00 0.00 0.00 70 1007.8
20260510014403 81 296 2.0 3.0 0.00 0.00 0.00 70 1007.7
20260510014302 81 296 2.0 3.0 0.00 0.00 0.00 70 1007.7
20260510014204 81 295 2.0 3.0 0.00 0.00 0.00 70 1007.6
20260510014104 80 279 2.0 3.0 0.00 0.00 0.00 70 1007.7
20260510014000 80 279 2.0 2.0 0.00 0.00 0.00 71 1007.6
20260510013900 81 144 1.0 2.0 0.00 0.00 0.00 70 1007.7
20260510013758 81 144 1.0 2.0 0.00 0.00 0.00 70 1007.6
20260510013656 81 144 1.0 2.0 0.00 0.00 0.00 69 1007.5
20260510013556 81 144 0.0 2.0 0.00 0.00 0.00 69 1007.5
20260510013454 81 144 0.0 2.0 0.00 0.00 0.00 67 1007.4
20260510013353 81 144 0.0 2.0 0.00 0.00 0.00 67 1007.4
20260510013251 81 144 0.0 2.0 0.00 0.00 0.00 67 1007.3
20260510013149 81 144 0.0 3.0 0.00 0.00 0.00 67 1007.3
20260510013048 81 144 1.0 3.0 0.00 0.00 0.00 67 1007.3
20260510012946 81 144 0.0 3.0 0.00 0.00 0.00 66 1007.3
20260510012843 81 144 1.0 3.0 0.00 0.00 0.00 66 1007.3
20260510012742 81 65 1.0 3.0 0.00 0.00 0.00 66 1007.3
20260510012642 81 66 1.0 4.0 0.00 0.00 0.00 66 1007.2
20260510012540 81 66 1.0 4.0 0.00 0.00 0.00 66 1007.2
20260510012438 81 66 2.0 4.0 0.00 0.00 0.00 66 1007.1
20260510012334 82 66 2.0 4.0 0.00 0.00 0.00 66 1007.2
20260510012232 82 66 2.0 4.0 0.00 0.00 0.00 66 1007.1
20260510012134 82 68 2.0 4.0 0.00 0.00 0.00 65 1007.0
20260510012033 82 69 2.0 4.0 0.00 0.00 0.00 65 1007.1
20260510011932 82 69 2.0 4.0 0.00 0.00 0.00 65 1007.1
20260510011832 82 71 2.0 4.0 0.00 0.00 0.00 65 1007.1
20260510011733 82 56 1.0 4.0 0.00 0.00 0.00 65 1007.0
20260510011632 82 51 1.0 4.0 0.00 0.00 0.00 65 1007.0
20260510011533 82 103 1.0 4.0 0.00 0.00 0.00 65 1007.1
20260510011431 82 104 2.0 4.0 0.00 0.00 0.00 64 1007.0
20260510011332 82 106 2.0 4.0 0.00 0.00 0.00 63 1007.0
20260510011232 82 104 3.0 4.0 0.00 0.00 0.00 63 1006.9
20260510011132 82 103 3.0 4.0 0.00 0.00 0.00 63 1006.8
20260510011032 82 111 3.0 4.0 0.00 0.00 0.00 63 1006.9
20260510010931 82 107 3.0 4.0 0.00 0.00 0.00 63 1006.8
20260510010831 82 103 3.0 4.0 0.00 0.00 0.00 63 1006.7
20260510010730 82 103 3.0 4.0 0.00 0.00 0.00 63 1006.8
20260510010632 82 102 2.0 4.0 0.00 0.00 0.00 63 1006.7
20260510010532 82 102 2.0 6.0 0.00 0.00 0.00 63 1006.8
20260510010432 82 103 1.0 6.0 0.00 0.00 0.00 63 1006.8
20260510010331 82 103 2.0 6.0 0.00 0.00 0.00 63 1006.8
20260510010232 82 102 1.0 6.0 0.00 0.00 0.00 62 1006.8
20260510010131 82 102 1.0 6.0 0.00 0.00 0.00 62 1006.8
20260510010031 82 102 2.0 6.0 0.00 0.00 0.00 62 1006.9
20260510005933 82 138 2.0 6.0 0.00 0.00 0.00 62 1006.9
20260510005832 82 149 3.0 6.0 0.00 0.00 0.00 62 1006.9
20260510005731 82 161 4.0 6.0 0.00 0.00 0.00 62 1006.8
20260510005632 82 100 3.0 6.0 0.00 0.00 0.00 61 1006.8
20260510005531 82 86 2.0 6.0 0.00 0.00 0.00 61 1006.7
20260510005431 82 96 3.0 10.0 0.00 0.00 0.00 61 1006.6
20260510005332 82 120 4.0 10.0 0.00 0.00 0.00 61 1006.6
20260510005232 82 93 4.0 10.0 0.00 0.00 0.00 61 1006.6
20260510005131 82 103 3.0 10.0 0.00 0.00 0.00 61 1006.5
20260510005030 82 97 3.0 10.0 0.00 0.00 0.00 61 1006.5
20260510004928 82 137 3.0 10.0 0.00 0.00 0.00 61 1006.6
20260510004828 82 210 3.0 12.0 0.00 0.00 0.00 61 1006.5
20260510004725 82 97 4.0 12.0 0.00 0.00 0.00 61 1006.6
20260510004624 82 250 5.0 12.0 0.00 0.00 0.00 61 1006.7
20260510004522 82 128 5.0 12.0 0.00 0.00 0.00 62 1006.6
20260510004422 82 120 4.0 12.0 0.00 0.00 0.00 62 1006.6
20260510004319 82 141 4.0 12.0 0.00 0.00 0.00 63 1006.6
20260510004218 82 203 6.0 12.0 0.00 0.00 0.00 63 1006.6
20260510004117 82 164 6.0 12.0 0.00 0.00 0.00 63 1006.5
20260510004016 82 212 7.0 16.0 0.00 0.00 0.00 63 1006.4
20260510003908 83 173 7.0 16.0 0.00 0.00 0.00 64 1006.4
20260510003807 83 214 6.0 16.0 0.00 0.00 0.00 63 1006.4
20260510003706 83 173 6.0 16.0 0.00 0.00 0.00 63 1006.4
20260510003602 83 154 6.0 16.0 0.00 0.00 0.00 63 1006.4
20260510003502 83 207 6.0 16.0 0.00 0.00 0.00 63 1006.4
20260510003403 83 185 4.0 16.0 0.00 0.00 0.00 62 1006.4
20260510003303 84 128 4.0 16.0 0.00 0.00 0.00 62 1006.4
20260510003203 84 173 7.0 16.0 0.00 0.00 0.00 61 1006.4
20260510003103 84 161 8.0 16.0 0.00 0.00 0.00 61 1006.4
20260510003005 85 221 7.0 16.0 0.00 0.00 0.00 59 1006.5
20260510002903 85 141 6.0 16.0 0.00 0.00 0.00 57 1006.5
20260510002803 85 8 6.0 16.0 0.00 0.00 0.00 57 1006.6
20260510002702 85 161 6.0 17.0 0.00 0.00 0.00 56 1006.5
20260510002602 85 221 6.0 17.0 0.00 0.00 0.00 56 1006.6
20260510002502 85 206 5.0 17.0 0.00 0.00 0.00 56 1006.5
20260510002402 85 185 6.0 17.0 0.00 0.00 0.00 57 1006.6
20260510002306 85 203 7.0 17.0 0.00 0.00 0.00 57 1006.6
20260510002203 86 210 7.0 17.0 0.00 0.00 0.00 58 1006.6
20260510002103 86 192 7.0 17.0 0.00 0.00 0.00 59 1006.6
20260510002004 86 196 6.0 17.0 0.00 0.00 0.00 60 1006.6
20260510001903 86 200 8.0 17.0 0.00 0.00 0.00 61 1006.5
20260510001802 86 203 9.0 17.0 0.00 0.00 0.00 61 1006.5
20260510001701 86 254 8.0 15.0 0.00 0.00 0.00 64 1006.4
20260510001600 87 149 7.0 15.0 0.00 0.00 0.00 67 1006.3
20260510001459 87 196 5.0 10.0 0.00 0.00 0.00 69 1006.3
20260510001356 87 199 4.0 10.0 0.00 0.00 0.00 70 1006.3
20260510001255 87 188 4.0 10.0 0.00 0.00 0.00 69 1006.3
20260510001152 87 175 5.0 10.0 0.00 0.00 0.00 69 1006.3
20260510001050 87 111 5.0 10.0 0.00 0.00 0.00 69 1006.2
20260510000949 87 106 5.0 10.0 0.00 0.00 0.00 69 1006.2
20260510000847 87 104 5.0 10.0 0.00 0.00 0.00 69 1006.1
20260510000746 87 97 4.0 7.0 0.00 0.00 0.00 69 1006.1
20260510000645 87 127 4.0 7.0 0.00 0.00 0.00 70 1006.1
20260510000543 87 90 4.0 7.0 0.00 0.00 0.00 70 1006.1
20260510000441 87 83 4.0 7.0 0.00 0.00 0.00 70 1006.1
20260510000341 87 87 4.0 7.0 0.00 0.00 0.00 70 1006.2
20260510000241 87 86 3.0 7.0 0.00 0.00 0.00 70 1006.2
20260510000133 87 92 4.0 7.0 0.00 0.00 0.00 70 1006.2
20260510000035 87 89 4.0 7.0 0.00 0.00 0.00 70 1006.2
20260509235931 87 107 4.0 7.0 0.00 0.00 0.00 70 1006.2
20260509235832 87 96 4.0 7.0 0.00 0.00 0.00 70 1006.2
20260509235731 87 102 3.0 6.0 0.00 0.00 0.00 70 1006.1
20260509235631 87 73 2.0 6.0 0.00 0.00 0.00 70 1006.1
20260509235532 87 71 3.0 6.0 0.00 0.00 0.00 70 1006.0
20260509235431 87 71 4.0 6.0 0.00 0.00 0.00 70 1006.0
20260509235331 87 63 4.0 6.0 0.00 0.00 0.00 70 1006.0
20260509235231 87 66 5.0 6.0 0.00 0.00 0.00 70 1006.0
20260509235131 87 80 4.0 7.0 0.00 0.00 0.00 70 1006.0
20260509235031 87 62 4.0 7.0 0.00 0.00 0.00 70 1006.1
20260509234932 87 49 4.0 7.0 0.00 0.00 0.00 70 1006.2
20260509234832 87 65 3.0 7.0 0.00 0.00 0.00 69 1006.2
20260509234731 87 79 3.0 7.0 0.00 0.00 0.00 69 1006.2
20260509234631 87 47 3.0 7.0 0.00 0.00 0.00 69 1006.1
20260509234531 87 44 3.0 7.0 0.00 0.00 0.00 69 1006.0
20260509234431 87 42 3.0 7.0 0.00 0.00 0.00 69 1006.0
20260509234331 87 87 4.0 7.0 0.00 0.00 0.00 68 1005.9
20260509234231 87 87 5.0 7.0 0.00 0.00 0.00 68 1005.9
20260509234132 87 92 5.0 7.0 0.00 0.00 0.00 68 1005.8
20260509234031 87 85 4.0 7.0 0.00 0.00 0.00 69 1005.8
20260509233932 87 66 4.0 7.0 0.00 0.00 0.00 69 1005.8
20260509233832 87 66 4.0 7.0 0.00 0.00 0.00 69 1005.8
20260509233731 87 75 4.0 7.0 0.00 0.00 0.00 69 1005.8
20260509233631 87 72 4.0 7.0 0.00 0.00 0.00 69 1005.8
20260509233531 87 56 3.0 6.0 0.00 0.00 0.00 69 1005.9
20260509233432 87 39 3.0 6.0 0.00 0.00 0.00 69 1005.8
20260509233332 87 61 4.0 6.0 0.00 0.00 0.00 69 1006.0
20260509233231 87 69 4.0 6.0 0.00 0.00 0.00 69 1006.0
20260509233131 87 55 3.0 6.0 0.00 0.00 0.00 69 1006.0
20260509233031 87 54 3.0 6.0 0.00 0.00 0.00 70 1006.0
20260509232931 87 52 3.0 6.0 0.00 0.00 0.00 69 1006.0
20260509232831 87 52 3.0 6.0 0.00 0.00 0.00 69 1006.1
20260509232731 87 51 4.0 6.0 0.00 0.00 0.00 69 1006.1
20260509232631 87 48 4.0 6.0 0.00 0.00 0.00 69 1005.9
20260509232531 87 55 4.0 6.0 0.00 0.00 0.00 68 1006.1
20260509232432 87 39 4.0 5.0 0.00 0.00 0.00 68 1006.1
20260509232332 88 39 3.0 5.0 0.00 0.00 0.00 68 1006.1
20260509232230 88 51 3.0 6.0 0.00 0.00 0.00 67 1006.1
20260509232131 88 51 3.0 6.0 0.00 0.00 0.00 67 1006.1
20260509232032 88 51 3.0 6.0 0.00 0.00 0.00 67 1006.0
20260509231931 88 56 3.0 6.0 0.00 0.00 0.00 66 1006.0
20260509231830 88 54 3.0 6.0 0.00 0.00 0.00 66 1006.0
20260509231731 88 55 3.0 6.0 0.00 0.00 0.00 64 1006.0
20260509231631 89 63 3.0 6.0 0.00 0.00 0.00 65 1006.1
20260509231531 89 62 4.0 6.0 0.00 0.00 0.00 65 1006.1
20260509231434 89 63 5.0 6.0 0.00 0.00 0.00 65 1006.1
20260509231332 89 87 4.0 6.0 0.00 0.00 0.00 65 1006.1
20260509231232 89 54 3.0 5.0 0.00 0.00 0.00 65 1006.1
20260509231131 89 78 2.0 5.0 0.00 0.00 0.00 65 1006.1
20260509231032 89 69 3.0 5.0 0.00 0.00 0.00 65 1006.1
20260509230931 89 94 4.0 5.0 0.00 0.00 0.00 65 1006.1
20260509230832 89 76 3.0 5.0 0.00 0.00 0.00 65 1006.1
20260509230733 89 76 4.0 5.0 0.00 0.00 0.00 65 1006.0
20260509230632 89 75 4.0 5.0 0.00 0.00 0.00 64 1006.0
20260509230532 89 80 3.0 5.0 0.00 0.00 0.00 63 1006.0
20260509230432 89 80 4.0 5.0 0.00 0.00 0.00 63 1006.0
20260509230331 89 69 4.0 5.0 0.00 0.00 0.00 63 1005.9
20260509230231 89 86 4.0 5.0 0.00 0.00 0.00 63 1005.9
20260509230131 89 89 3.0 5.0 0.00 0.00 0.00 62 1005.9
20260509230032 89 107 3.0 5.0 0.00 0.00 0.00 62 1006.0
20260509225931 89 96 4.0 5.0 0.00 0.00 0.00 63 1005.8
20260509225832 89 121 4.0 5.0 0.00 0.00 0.00 62 1005.9
20260509225731 90 116 3.0 5.0 0.00 0.00 0.00 63 1005.8
20260509225631 90 96 2.0 5.0 0.00 0.00 0.00 62 1005.8
20260509225531 90 125 2.0 4.0 0.00 0.00 0.00 63 1005.9
20260509225431 89 118 2.0 4.0 0.00 0.00 0.00 63 1005.8
20260509225332 89 149 2.0 4.0 0.00 0.00 0.00 62 1005.9
20260509225231 89 110 1.0 3.0 0.00 0.00 0.00 62 1005.9
20260509225131 90 110 0.0 1.0 0.00 0.00 0.00 62 1005.9
20260509225032 90 104 0.0 1.0 0.00 0.00 0.00 63 1005.9
20260509224931 89 213 0.0 1.0 0.00 0.00 0.00 62 1005.9
20260509224831 89 147 0.0 1.0 0.00 0.00 0.00 63 1005.9
20260509224730 89 147 0.0 1.0 0.00 0.00 0.00 62 1005.9
20260509224632 89 173 0.0 2.0 0.00 0.00 0.00 62 1005.8
20260509224531 89 124 0.0 4.0 0.00 0.00 0.00 62 1005.9
20260509224431 89 124 0.0 4.0 0.00 0.00 0.00 62 1005.9
20260509224331 89 165 0.0 4.0 0.00 0.00 0.00 61 1005.9
20260509224231 89 154 0.0 4.0 0.00 0.00 0.00 62 1005.9
20260509224131 89 137 0.0 4.0 0.00 0.00 0.00 61 1005.9
20260509224032 89 123 0.0 4.0 0.00 0.00 0.00 61 1005.9
20260509223933 89 123 0.0 4.0 0.00 0.00 0.00 61 1005.9
20260509223832 90 120 1.0 4.0 0.00 0.00 0.00 62 1005.8
20260509223732 90 109 2.0 4.0 0.00 0.00 0.00 61 1005.8
20260509223633 90 109 2.0 4.0 0.00 0.00 0.00 62 1005.9
20260509223531 90 87 1.0 4.0 0.00 0.00 0.00 61 1005.9
20260509223431 90 10 1.0 2.0 0.00 0.00 0.00 60 1005.8
20260509223329 90 10 0.0 2.0 0.00 0.00 0.00 61 1005.8
20260509223228 90 10 0.0 2.0 0.00 0.00 0.00 61 1005.8
20260509223130 90 10 0.0 2.0 0.00 0.00 0.00 61 1005.8
20260509223028 90 10 1.0 2.0 0.00 0.01 0.00 60 1005.8
20260509222927 90 10 1.0 2.0 0.00 0.01 0.00 60 1005.8
20260509222827 90 10 1.0 2.0 0.00 0.01 0.00 60 1005.8
20260509222727 90 10 1.0 2.0 0.00 0.01 0.00 61 1005.8
20260509222629 90 10 1.0 2.0 0.00 0.01 0.00 60 1005.8
20260509222529 90 10 1.0 3.0 0.00 0.01 0.00 60 1005.8
20260509222427 91 10 0.0 3.0 0.00 0.01 0.00 60 1005.9
20260509222328 91 10 0.0 3.0 0.00 0.01 0.00 60 1005.8
20260509222227 91 10 0.0 4.0 0.00 0.01 0.00 60 1005.8
20260509222127 90 10 1.0 4.0 0.00 0.01 0.00 59 1005.8
20260509222028 91 10 0.0 4.0 0.00 0.01 0.00 59 1005.7
20260509221929 91 10 0.0 4.0 0.00 0.01 0.00 58 1005.7
20260509221827 91 10 1.0 4.0 0.00 0.01 0.00 58 1005.7
20260509221727 92 10 1.0 4.0 0.00 0.01 0.00 58 1005.7
20260509221628 92 10 1.0 6.0 0.00 0.01 0.00 58 1005.6
20260509221527 91 10 1.0 6.0 0.00 0.01 0.00 59 1005.7
20260509221427 91 10 2.0 6.0 0.00 0.01 0.00 58 1005.6
20260509221328 91 10 2.0 6.0 0.00 0.01 0.00 59 1005.7
20260509221227 91 11 1.0 6.0 0.00 0.01 0.00 59 1005.7
20260509221128 91 38 2.0 6.0 0.00 0.01 0.00 59 1005.7
20260509221028 91 38 2.0 6.0 0.00 0.01 0.00 59 1005.7
20260509220928 90 49 2.0 6.0 0.00 0.01 0.00 60 1005.7
20260509220828 91 49 4.0 6.0 0.00 0.01 0.00 59 1005.7
20260509220727 91 85 4.0 6.0 0.00 0.01 0.00 59 1005.7
20260509220630 91 52 2.0 5.0 0.00 0.01 0.00 59 1005.6
20260509220527 91 61 2.0 5.0 0.00 0.01 0.00 59 1005.7
20260509220428 91 61 1.0 5.0 0.00 0.01 0.00 59 1005.7
20260509220328 91 61 2.0 5.0 0.00 0.01 0.00 60 1005.7
20260509220227 91 59 3.0 5.0 0.00 0.01 0.00 59 1005.7
20260509220126 91 59 3.0 5.0 0.00 0.01 0.00 59 1005.7
20260509220027 91 79 2.0 4.0 0.00 0.01 0.00 58 1005.7
20260509215929 91 80 3.0 5.0 0.00 0.01 0.00 58 1005.7
20260509215827 92 83 2.0 5.0 0.00 0.01 0.00 58 1005.7
20260509215727 92 42 1.0 5.0 0.00 0.01 0.00 58 1005.7
20260509215628 91 42 1.0 5.0 0.00 0.01 0.00 59 1005.6
20260509215528 90 42 1.0 5.0 0.00 0.01 0.00 59 1005.6
20260509215427 91 92 2.0 5.0 0.00 0.01 0.00 58 1005.6
20260509215326 91 92 3.0 5.0 0.00 0.01 0.00 59 1005.6
20260509215229 91 59 3.0 5.0 0.00 0.01 0.00 58 1005.6
20260509215127 91 47 2.0 5.0 0.00 0.01 0.00 58 1005.7
20260509215027 91 39 3.0 5.0 0.00 0.01 0.00 58 1005.7
20260509214927 91 38 2.0 5.0 0.00 0.01 0.00 59 1005.6
20260509214827 91 80 1.0 4.0 0.00 0.01 0.00 58 1005.7
20260509214726 91 80 2.0 4.0 0.00 0.01 0.00 58 1005.7
20260509214626 91 80 2.0 4.0 0.00 0.01 0.00 58 1005.6
20260509214527 91 63 2.0 4.0 0.00 0.01 0.00 58 1005.7
20260509214428 91 54 2.0 4.0 0.00 0.01 0.00 60 1005.6
20260509214327 91 58 2.0 4.0 0.00 0.01 0.00 59 1005.6
20260509214227 91 37 2.0 4.0 0.00 0.01 0.00 60 1005.6
20260509214126 91 85 2.0 5.0 0.00 0.01 0.00 59 1005.6
20260509214026 91 3 2.0 5.0 0.00 0.01 0.00 60 1005.7
20260509213927 91 3 2.0 5.0 0.00 0.01 0.00 60 1005.6
20260509213828 91 3 2.0 5.0 0.00 0.01 0.00 59 1005.6
20260509213727 92 3 2.0 5.0 0.00 0.01 0.00 58 1005.7
20260509213626 92 20 3.0 5.0 0.00 0.01 0.00 58 1005.7
20260509213527 92 20 2.0 5.0 0.00 0.01 0.00 58 1005.7
20260509213426 92 45 1.0 5.0 0.00 0.01 0.00 59 1005.6
20260509213326 91 47 2.0 5.0 0.00 0.01 0.00 60 1005.7
20260509213226 91 47 3.0 5.0 0.00 0.01 0.00 59 1005.6
20260509213128 92 69 3.0 5.0 0.00 0.01 0.00 58 1005.7
20260509213027 92 32 2.0 5.0 0.00 0.01 0.00 59 1005.6
20260509212927 92 61 1.0 6.0 0.00 0.01 0.00 58 1005.6
20260509212828 92 6 1.0 6.0 0.00 0.01 0.00 58 1005.7
20260509212726 93 6 0.0 6.0 0.00 0.01 0.00 57 1005.7
20260509212627 93 7 0.0 6.0 0.00 0.01 0.00 59 1005.7
20260509212527 92 7 1.0 6.0 0.00 0.01 0.00 58 1005.6
20260509212429 92 7 1.0 6.0 0.00 0.01 0.00 59 1005.6
20260509212326 92 7 1.0 6.0 0.00 0.01 0.00 60 1005.7
20260509212225 91 7 3.0 6.0 0.00 0.01 0.00 60 1005.7
20260509212127 91 7 4.0 6.0 0.00 0.01 0.00 60 1005.7
20260509212026 91 7 2.0 6.0 0.00 0.01 0.00 61 1005.6
20260509211926 91 355 1.0 5.0 0.00 0.01 0.00 62 1005.7
20260509211825 90 269 1.0 5.0 0.00 0.01 0.00 62 1005.8
20260509211727 90 269 1.0 5.0 0.00 0.01 0.00 63 1005.7
20260509211625 89 269 2.0 5.0 0.00 0.01 0.00 63 1005.7
20260509211525 89 269 2.0 5.0 0.00 0.01 0.00 62 1005.7
20260509211428 89 269 3.0 5.0 0.00 0.01 0.00 62 1005.8
20260509211326 90 269 3.0 6.0 0.00 0.01 0.00 62 1005.7
20260509211227 90 269 4.0 6.0 0.00 0.01 0.00 61 1005.7
20260509211126 90 285 4.0 6.0 0.00 0.01 0.00 61 1005.8
20260509211028 91 307 3.0 6.0 0.00 0.01 0.00 61 1005.8
20260509210926 90 319 3.0 6.0 0.00 0.01 0.00 61 1005.8
20260509210826 90 319 3.0 6.0 0.00 0.01 0.00 61 1005.8
20260509210725 90 321 2.0 6.0 0.00 0.01 0.00 61 1005.8
20260509210626 90 303 2.0 6.0 0.00 0.01 0.00 60 1005.8
20260509210526 91 269 3.0 6.0 0.00 0.01 0.00 60 1005.8
20260509210425 91 269 2.0 6.0 0.00 0.01 0.00 59 1005.9
20260509210326 91 281 0.0 4.0 0.00 0.01 0.00 61 1005.9
20260509210226 91 0 0.0 6.0 0.00 0.01 0.00 62 1005.9
20260509210125 91 0 1.0 6.0 0.00 0.01 0.00 61 1005.9
20260509210026 91 0 2.0 6.0 0.00 0.01 0.00 61 1006.0
20260509205925 91 0 2.0 6.0 0.00 0.01 0.00 60 1005.9
20260509205823 91 0 3.0 6.0 0.00 0.01 0.00 61 1006.0
20260509205723 91 0 3.0 6.0 0.00 0.01 0.00 61 1006.0
20260509205621 91 353 2.0 6.0 0.00 0.01 0.00 61 1006.0
20260509205520 91 353 2.0 6.0 0.00 0.01 0.00 61 1006.0
20260509205419 91 353 3.0 6.0 0.00 0.01 0.00 61 1006.0
20260509205315 91 336 4.0 6.0 0.00 0.01 0.00 62 1006.1
20260509205215 91 345 4.0 6.0 0.00 0.01 0.00 63 1006.2
20260509205112 91 326 4.0 6.0 0.00 0.01 0.00 62 1006.1
20260509205011 91 309 4.0 6.0 0.00 0.01 0.00 62 1006.1
20260509204910 91 316 4.0 6.0 0.00 0.01 0.00 63 1006.2
20260509204808 92 347 4.0 6.0 0.00 0.01 0.00 61 1006.1
20260509204707 92 312 3.0 5.0 0.00 0.01 0.00 61 1006.1
20260509204605 93 338 3.0 5.0 0.00 0.01 0.00 60 1006.1
20260509204504 93 0 2.0 3.0 0.00 0.01 0.00 60 1006.1
20260509204403 92 0 2.0 3.0 0.00 0.01 0.00 60 1006.1
20260509204305 92 350 2.0 3.0 0.00 0.01 0.00 61 1006.1
20260509204203 91 353 2.0 4.0 0.00 0.01 0.00 62 1006.2
20260509204103 91 353 2.0 4.0 0.00 0.01 0.00 62 1006.2
20260509204005 91 353 2.0 4.0 0.00 0.01 0.00 62 1006.2
20260509203903 91 353 2.0 4.0 0.00 0.01 0.00 61 1006.2
20260509203803 91 353 2.0 4.0 0.00 0.01 0.00 61 1006.2
20260509203702 91 353 1.0 4.0 0.00 0.01 0.00 62 1006.2
20260509203602 91 353 1.0 4.0 0.00 0.01 0.00 61 1006.3
20260509203502 91 353 2.0 4.0 0.00 0.01 0.00 61 1006.3
20260509203405 91 353 3.0 4.0 0.00 0.01 0.00 61 1006.3
20260509203302 91 353 3.0 4.0 0.00 0.01 0.00 61 1006.3
20260509203203 91 350 2.0 4.0 0.00 0.01 0.00 62 1006.3
20260509203103 91 350 2.0 4.0 0.00 0.01 0.00 62 1006.3
20260509203004 91 350 2.0 4.0 0.00 0.01 0.00 63 1006.4
20260509202903 90 0 1.0 4.0 0.00 0.01 0.00 62 1006.3
20260509202803 91 0 1.0 4.0 0.00 0.01 0.00 61 1006.4
20260509202704 91 357 2.0 4.0 0.00 0.01 0.00 61 1006.3
20260509202602 91 357 3.0 5.0 0.00 0.01 0.00 62 1006.4
20260509202503 90 357 3.0 5.0 0.00 0.01 0.00 62 1006.4
20260509202404 90 351 2.0 5.0 0.00 0.01 0.00 62 1006.4
20260509202306 90 353 3.0 5.0 0.00 0.01 0.00 62 1006.3
20260509202203 90 350 3.0 5.0 0.00 0.01 0.00 63 1006.4
20260509202102 90 0 2.0 5.0 0.00 0.01 0.00 63 1006.4
20260509202004 90 0 2.0 5.0 0.00 0.01 0.00 63 1006.4
20260509201901 90 0 3.0 5.0 0.00 0.01 0.00 63 1006.4
20260509201802 89 348 4.0 5.0 0.00 0.01 0.00 64 1006.4
20260509201704 89 348 4.0 5.0 0.00 0.01 0.00 64 1006.4
20260509201602 89 314 4.0 5.0 0.00 0.01 0.00 64 1006.4
20260509201503 89 316 4.0 5.0 0.00 0.01 0.00 65 1006.4
20260509201403 89 0 4.0 7.0 0.00 0.01 0.00 65 1006.4
20260509201304 89 13 4.0 7.0 0.00 0.01 0.00 64 1006.4
20260509201202 89 0 4.0 7.0 0.00 0.01 0.00 64 1006.5
20260509201102 90 0 4.0 7.0 0.00 0.01 0.00 63 1006.5
20260509201003 90 348 3.0 7.0 0.00 0.01 0.00 64 1006.6
20260509200902 90 324 3.0 7.0 0.00 0.01 0.00 63 1006.5
20260509200802 91 321 4.0 7.0 0.00 0.01 0.00 63 1006.5
20260509200703 90 323 4.0 7.0 0.00 0.01 0.00 63 1006.6
20260509200603 90 0 4.0 7.0 0.00 0.01 0.00 64 1006.5
20260509200503 90 324 6.0 7.0 0.00 0.02 0.00 63 1006.6
20260509200402 91 338 5.0 7.0 0.00 0.02 0.00 62 1006.6
20260509200303 91 317 3.0 7.0 0.00 0.02 0.00 63 1006.6
20260509200202 91 0 2.0 7.0 0.00 0.02 0.00 63 1006.6
20260509200003 90 31 4.0 7.0 0.00 0.03 0.00 63 1006.6
20260509195903 90 35 3.0 7.0 0.00 0.03 0.00 63 1006.6
20260509195803 90 28 4.0 7.0 0.00 0.03 0.00 63 1006.7
20260509195704 90 17 5.0 7.0 0.00 0.03 0.00 62 1006.7
20260509195602 91 11 4.0 7.0 0.00 0.03 0.00 63 1006.7
20260509195502 90 39 4.0 7.0 0.00 0.03 0.00 61 1006.8
20260509195401 91 56 5.0 7.0 0.00 0.03 0.00 61 1006.7
20260509195306 91 42 5.0 7.0 0.00 0.03 0.00 62 1006.8
20260509195203 91 37 3.0 7.0 0.00 0.04 0.00 62 1006.7
20260509195103 91 0 2.0 6.0 0.00 0.04 0.00 63 1006.7
20260509195003 90 336 2.0 6.0 0.00 0.04 0.00 62 1006.7
20260509194902 90 336 3.0 6.0 0.00 0.04 0.00 62 1006.7
20260509194803 91 320 3.0 6.0 0.00 0.04 0.00 61 1006.7
20260509194702 91 320 3.0 6.0 0.00 0.04 0.00 61 1006.7
20260509194602 91 334 2.0 7.0 0.00 0.04 0.00 63 1006.7
20260509194502 91 0 3.0 7.0 0.00 0.04 0.00 62 1006.8
20260509194403 91 0 4.0 7.0 0.00 0.04 0.00 62 1006.8
20260509194304 90 345 4.0 7.0 0.00 0.04 0.00 62 1006.8
20260509194202 91 338 2.0 7.0 0.00 0.05 0.00 62 1006.8
20260509194103 91 326 1.0 7.0 0.00 0.05 0.00 62 1006.9
20260509194003 90 326 3.0 7.0 0.00 0.05 0.00 63 1006.9
20260509193903 90 321 4.0 7.0 0.00 0.05 0.00 63 1007.0
20260509193802 90 334 5.0 7.0 0.00 0.05 0.00 64 1007.0
20260509193702 89 320 4.0 7.0 0.00 0.05 0.00 65 1007.0
20260509193603 89 319 3.0 7.0 0.00 0.05 0.00 64 1006.9
20260509193502 89 282 5.0 7.0 0.00 0.05 0.00 64 1007.0
20260509193403 89 314 4.0 7.0 0.00 0.05 0.00 65 1007.0
20260509193303 89 286 2.0 6.0 0.00 0.05 0.00 65 1007.0
20260509193202 89 317 3.0 6.0 0.00 0.05 0.00 65 1007.0
20260509193102 89 290 3.0 6.0 0.00 0.05 0.00 65 1007.1
20260509193003 89 305 3.0 6.0 0.00 0.05 0.00 65 1007.1
20260509192903 88 312 4.0 6.0 0.00 0.05 0.00 66 1007.0
20260509192802 88 313 3.0 6.0 0.00 0.05 0.00 67 1007.0
20260509192702 88 300 3.0 6.0 0.00 0.05 0.00 68 1007.1
20260509192603 88 296 4.0 6.0 0.00 0.05 0.00 65 1007.0
20260509192503 88 305 4.0 6.0 0.00 0.05 0.00 65 1007.0
20260509192403 88 314 2.0 6.0 0.00 0.05 0.00 65 1007.0
20260509192305 88 83 2.0 6.0 0.00 0.05 0.00 65 1007.0
20260509192204 88 83 2.0 6.0 0.00 0.05 0.00 65 1007.0
20260509192102 88 85 2.0 6.0 0.00 0.05 0.00 66 1006.9
20260509192002 88 116 2.0 6.0 0.00 0.05 0.00 66 1006.9
20260509191903 88 235 3.0 6.0 0.00 0.05 0.00 65 1007.0
20260509191802 88 235 5.0 6.0 0.00 0.05 0.00 66 1007.0
20260509191702 88 231 4.0 6.0 0.00 0.05 0.00 65 1007.0
20260509191604 88 216 1.0 4.0 0.00 0.05 0.00 65 1007.0
20260509191503 88 310 1.0 3.0 0.00 0.05 0.00 66 1007.1
20260509191402 88 312 2.0 3.0 0.00 0.05 0.00 66 1007.0
20260509191303 88 312 2.0 3.0 0.00 0.05 0.00 67 1007.1
20260509191203 88 90 2.0 3.0 0.00 0.05 0.00 68 1007.1
20260509191102 88 117 2.0 3.0 0.00 0.05 0.00 68 1007.1
20260509191002 88 3 1.0 3.0 0.00 0.05 0.00 68 1007.2
20260509190903 87 0 1.0 3.0 0.00 0.05 0.00 68 1007.1
20260509190804 87 0 1.0 3.0 0.00 0.05 0.00 69 1007.1
20260509190702 87 0 0.0 3.0 0.00 0.05 0.00 68 1007.2
20260509190603 87 0 0.0 3.0 0.00 0.05 0.00 67 1007.2
20260509190505 87 358 0.0 3.0 0.00 0.05 0.00 68 1007.2
20260509190402 87 358 1.0 3.0 0.00 0.05 0.00 67 1007.1
20260509190302 87 358 1.0 3.0 0.00 0.05 0.00 67 1007.2
20260509190203 87 358 1.0 3.0 0.00 0.05 0.00 68 1007.2
20260509190001 87 288 1.0 4.0 0.00 0.05 0.00 68 1007.2
20260509185901 87 288 1.0 4.0 0.00 0.05 0.00 67 1007.3
20260509185803 87 288 1.0 4.0 0.00 0.05 0.00 67 1007.3
20260509185702 87 288 1.0 5.0 0.00 0.05 0.00 68 1007.3
20260509185559 87 288 2.0 5.0 0.00 0.05 0.00 68 1007.3
20260509185459 87 288 2.0 5.0 0.00 0.05 0.00 68 1007.3
20260509185357 87 272 2.0 5.0 0.00 0.05 0.00 67 1007.3
20260509185255 87 272 2.0 5.0 0.00 0.05 0.00 67 1007.3
20260509185153 87 272 2.0 5.0 0.00 0.05 0.00 67 1007.3
20260509185053 87 221 2.0 5.0 0.00 0.05 0.00 68 1007.3
20260509184950 87 261 2.0 5.0 0.00 0.05 0.00 68 1007.3
20260509184849 87 238 3.0 5.0 0.00 0.05 0.00 68 1007.3
20260509184747 87 238 4.0 5.0 0.00 0.05 0.00 68 1007.3
20260509184647 87 240 3.0 5.0 0.00 0.05 0.00 68 1007.2
20260509184545 87 151 3.0 6.0 0.00 0.05 0.00 68 1007.3
20260509184444 87 195 3.0 9.0 0.00 0.05 0.00 69 1007.3
20260509184341 86 106 3.0 9.0 0.00 0.05 0.00 69 1007.3
20260509184240 86 228 4.0 9.0 0.00 0.05 0.00 69 1007.4
20260509184139 86 226 3.0 9.0 0.00 0.05 0.00 69 1007.4
20260509184037 86 264 2.0 9.0 0.00 0.05 0.00 69 1007.4
20260509183936 86 258 3.0 9.0 0.00 0.05 0.00 70 1007.4
20260509183834 86 258 3.0 9.0 0.00 0.05 0.00 70 1007.4
20260509183732 86 264 4.0 9.0 0.00 0.05 0.00 70 1007.4
20260509183632 86 264 5.0 10.0 0.00 0.05 0.00 70 1007.4
20260509183531 86 286 5.0 10.0 0.00 0.05 0.00 70 1007.4
20260509183431 86 217 4.0 10.0 0.00 0.05 0.00 71 1007.4
20260509183331 85 252 3.0 10.0 0.00 0.05 0.00 72 1007.4
20260509183231 85 258 3.0 10.0 0.00 0.05 0.00 71 1007.5
20260509183132 85 247 3.0 10.0 0.00 0.05 0.00 71 1007.4
20260509183030 86 261 4.0 10.0 0.00 0.05 0.00 71 1007.4
20260509182932 86 238 6.0 10.0 0.00 0.05 0.00 71 1007.5
20260509182831 86 252 6.0 10.0 0.00 0.05 0.00 71 1007.5
20260509182732 86 250 5.0 10.0 0.00 0.05 0.00 71 1007.6
20260509182631 86 209 4.0 10.0 0.00 0.05 0.00 71 1007.5
20260509182531 86 200 4.0 10.0 0.00 0.05 0.00 71 1007.6
20260509182430 86 231 4.0 10.0 0.00 0.05 0.00 70 1007.5
20260509182332 86 238 4.0 10.0 0.00 0.05 0.00 70 1007.5
20260509182232 86 203 4.0 10.0 0.00 0.05 0.00 70 1007.6
20260509182131 86 195 5.0 11.0 0.00 0.05 0.00 70 1007.5
20260509182033 86 183 4.0 11.0 0.00 0.05 0.00 70 1007.6
20260509181932 86 220 4.0 11.0 0.00 0.05 0.00 70 1007.6
20260509181830 86 210 3.0 11.0 0.00 0.05 0.00 71 1007.6
20260509181730 86 234 2.0 11.0 0.00 0.05 0.00 70 1007.7
20260509181631 86 192 2.0 11.0 0.00 0.05 0.00 70 1007.7
20260509181531 86 173 4.0 11.0 0.00 0.05 0.00 70 1007.7
20260509181431 87 226 6.0 11.0 0.00 0.05 0.00 69 1007.7
20260509181331 87 234 6.0 11.0 0.00 0.05 0.00 69 1007.7
20260509181231 87 230 6.0 11.0 0.00 0.05 0.00 70 1007.7
20260509181131 87 173 6.0 11.0 0.00 0.05 0.00 69 1007.8
20260509181031 88 89 5.0 11.0 0.00 0.05 0.00 68 1007.7
20260509180931 88 152 6.0 11.0 0.00 0.05 0.00 68 1007.9
20260509180831 89 121 6.0 11.0 0.00 0.05 0.00 67 1007.9
20260509180731 89 192 6.0 11.0 0.00 0.05 0.00 67 1007.9
20260509180629 89 151 5.0 11.0 0.00 0.05 0.00 69 1007.9
20260509180527 89 169 5.0 11.0 0.00 0.05 0.00 68 1007.9
20260509180426 89 202 4.0 11.0 0.00 0.05 0.00 70 1007.9
20260509180324 88 195 3.0 13.0 0.00 0.05 0.00 70 1007.9
20260509180222 88 155 3.0 13.0 0.00 0.05 0.00 71 1007.9
20260509180123 87 248 6.0 13.0 0.00 0.05 0.00 70 1007.9
20260509180022 87 248 6.0 13.0 0.00 0.05 0.00 70 1008.0
20260509175923 87 248 6.0 13.0 0.00 0.05 0.00 70 1007.9
20260509175822 87 247 7.0 13.0 0.00 0.05 0.00 70 1008.0
20260509175721 88 235 7.0 13.0 0.00 0.05 0.00 69 1008.0
20260509175623 88 197 7.0 13.0 0.00 0.05 0.00 70 1008.1
20260509175522 88 179 7.0 13.0 0.00 0.05 0.00 70 1008.1
20260509175422 88 203 8.0 12.0 0.00 0.05 0.00 71 1008.1
20260509175323 88 264 6.0 11.0 0.00 0.05 0.00 72 1008.2
20260509175222 87 192 5.0 9.0 0.00 0.05 0.00 73 1008.1
20260509175121 87 223 5.0 9.0 0.00 0.05 0.00 72 1008.1
20260509175021 87 206 4.0 10.0 0.00 0.05 0.00 72 1008.2
20260509174923 87 231 4.0 10.0 0.00 0.05 0.00 72 1008.1
20260509174821 87 250 3.0 11.0 0.00 0.05 0.00 73 1008.1
20260509174721 87 259 2.0 11.0 0.00 0.05 0.00 74 1008.1
20260509174622 86 131 4.0 11.0 0.00 0.05 0.00 74 1008.1
20260509174522 86 189 5.0 11.0 0.00 0.05 0.00 74 1008.2
20260509174421 86 275 5.0 11.0 0.00 0.05 0.00 75 1008.2
20260509174322 86 166 5.0 11.0 0.00 0.05 0.00 75 1008.3
20260509174223 85 226 5.0 11.0 0.00 0.05 0.00 75 1008.3
20260509174123 85 223 5.0 11.0 0.00 0.05 0.00 76 1008.3
20260509174020 85 269 6.0 11.0 0.00 0.05 0.00 76 1008.3
20260509173922 85 227 6.0 11.0 0.00 0.05 0.00 76 1008.2
20260509173821 85 203 6.0 12.0 0.00 0.05 0.00 76 1008.3
20260509173722 85 223 6.0 12.0 0.00 0.05 0.00 76 1008.2
20260509173621 85 175 6.0 12.0 0.00 0.05 0.00 76 1008.2
20260509173523 85 125 5.0 12.0 0.00 0.05 0.00 77 1008.2
20260509173420 85 213 4.0 12.0 0.00 0.05 0.00 77 1008.2
20260509173322 85 197 5.0 12.0 0.00 0.05 0.00 77 1008.2
20260509173223 85 185 4.0 12.0 0.00 0.05 0.00 78 1008.2
20260509173121 85 207 5.0 12.0 0.00 0.05 0.00 78 1008.3
20260509173022 85 138 6.0 12.0 0.00 0.05 0.00 78 1008.3
20260509172923 85 102 6.0 12.0 0.00 0.05 0.00 78 1008.3
20260509172822 85 151 4.0 11.0 0.00 0.05 0.00 79 1008.2
20260509172720 84 200 4.0 11.0 0.00 0.05 0.00 79 1008.2
20260509172620 84 220 5.0 11.0 0.00 0.05 0.00 79 1008.3
20260509172523 84 193 5.0 11.0 0.00 0.05 0.00 79 1008.3
20260509172421 84 176 6.0 11.0 0.00 0.05 0.00 79 1008.3
20260509172321 84 209 6.0 11.0 0.00 0.05 0.00 79 1008.4
20260509172221 84 209 6.0 10.0 0.00 0.05 0.00 79 1008.4
20260509172122 84 214 6.0 11.0 0.00 0.05 0.00 78 1008.4
20260509172020 84 214 6.0 11.0 0.00 0.05 0.00 78 1008.4
20260509171920 84 228 5.0 11.0 0.00 0.05 0.00 79 1008.4
20260509171821 84 265 5.0 11.0 0.00 0.05 0.00 79 1008.5
20260509171721 84 202 5.0 11.0 0.00 0.05 0.00 79 1008.5
20260509171621 84 248 5.0 11.0 0.00 0.05 0.00 79 1008.4
20260509171521 84 244 5.0 11.0 0.00 0.05 0.00 79 1008.4
20260509171420 84 190 6.0 11.0 0.00 0.05 0.00 79 1008.4
20260509171321 84 228 7.0 11.0 0.00 0.05 0.00 79 1008.5
20260509171220 84 195 6.0 11.0 0.00 0.05 0.00 79 1008.5
20260509171122 84 210 4.0 11.0 0.00 0.05 0.00 79 1008.4
20260509171020 85 216 4.0 11.0 0.00 0.05 0.00 80 1008.4
20260509170920 84 214 4.0 11.0 0.00 0.05 0.00 80 1008.3
20260509170822 84 262 3.0 10.0 0.00 0.05 0.00 82 1008.3
20260509170722 84 162 3.0 10.0 0.00 0.05 0.00 82 1008.3
20260509170620 83 117 4.0 10.0 0.00 0.05 0.00 81 1008.2
20260509170520 83 182 4.0 10.0 0.00 0.05 0.00 82 1008.3
20260509170421 83 165 3.0 10.0 0.00 0.05 0.00 83 1008.3
20260509170320 82 182 3.0 10.0 0.00 0.05 0.00 84 1008.3
20260509170220 82 159 4.0 10.0 0.00 0.05 0.00 83 1008.4
20260509170121 81 175 5.0 10.0 0.00 0.05 0.00 83 1008.4
20260509170021 81 234 4.0 10.0 0.00 0.05 0.00 83 1008.5
20260509165921 81 171 3.0 6.0 0.00 0.05 0.00 84 1008.4
20260509165820 81 180 2.0 6.0 0.00 0.05 0.00 84 1008.5
20260509165722 81 94 2.0 6.0 0.00 0.05 0.00 84 1008.4
20260509165620 81 173 2.0 6.0 0.00 0.05 0.00 84 1008.4
20260509165520 81 166 2.0 6.0 0.00 0.05 0.00 84 1008.4
20260509165421 81 173 3.0 6.0 0.00 0.05 0.00 84 1008.5
20260509165319 81 200 4.0 6.0 0.00 0.05 0.00 84 1008.5
20260509165221 81 171 3.0 5.0 0.00 0.05 0.00 84 1008.3
20260509165120 81 199 1.0 4.0 0.00 0.05 0.00 85 1008.5
20260509165021 81 196 0.0 4.0 0.00 0.05 0.00 84 1008.4
20260509164920 81 164 1.0 4.0 0.00 0.05 0.00 84 1008.5
20260509164820 81 162 2.0 4.0 0.00 0.05 0.00 85 1008.4
20260509164720 81 195 1.0 4.0 0.00 0.05 0.00 85 1008.5
20260509164620 81 169 0.0 4.0 0.00 0.05 0.00 85 1008.5
20260509164520 80 252 0.0 4.0 0.00 0.05 0.00 85 1008.5
20260509164420 80 252 1.0 4.0 0.00 0.05 0.00 85 1008.4
20260509164319 80 252 2.0 4.0 0.00 0.05 0.00 85 1008.4
20260509164220 80 268 2.0 4.0 0.00 0.05 0.00 85 1008.4
20260509164119 80 269 2.0 4.0 0.00 0.05 0.00 85 1008.4
20260509164020 80 276 2.0 4.0 0.00 0.05 0.00 85 1008.5
20260509163920 80 278 2.0 4.0 0.00 0.05 0.00 85 1008.5
20260509163820 80 240 2.0 4.0 0.00 0.05 0.00 85 1008.6
20260509163720 80 240 2.0 4.0 0.00 0.05 0.00 85 1008.6
20260509163621 80 247 2.0 4.0 0.00 0.05 0.00 85 1008.6
20260509163519 80 268 2.0 4.0 0.00 0.05 0.00 85 1008.6
20260509163419 80 264 3.0 4.0 0.00 0.05 0.00 85 1008.6
20260509163320 80 252 2.0 4.0 0.00 0.05 0.00 85 1008.6
20260509163219 80 254 2.0 4.0 0.00 0.05 0.00 84 1008.6
20260509163119 80 254 2.0 4.0 0.00 0.05 0.00 84 1008.6
20260509163019 80 258 2.0 3.0 0.00 0.05 0.00 84 1008.6
20260509162920 80 258 2.0 3.0 0.00 0.05 0.00 85 1008.6
20260509162821 80 326 2.0 3.0 0.00 0.05 0.00 85 1008.6
20260509162721 80 326 2.0 3.0 0.00 0.05 0.00 85 1008.6
20260509162620 80 326 1.0 3.0 0.00 0.05 0.00 85 1008.7
20260509162519 80 326 0.0 3.0 0.00 0.05 0.00 86 1008.6
20260509162419 80 326 0.0 3.0 0.00 0.05 0.00 86 1008.6
20260509162320 80 326 1.0 3.0 0.00 0.05 0.00 85 1008.6
20260509162220 80 326 1.0 3.0 0.00 0.05 0.00 86 1008.6
20260509162120 80 326 0.0 3.0 0.00 0.05 0.00 86 1008.6
20260509162020 80 326 1.0 3.0 0.00 0.05 0.00 86 1008.6
20260509161920 80 326 2.0 4.0 0.00 0.05 0.00 86 1008.6
20260509161820 80 326 1.0 5.0 0.00 0.05 0.00 86 1008.6
20260509161721 80 329 1.0 5.0 0.00 0.05 0.00 87 1008.7
20260509161621 80 329 1.0 5.0 0.00 0.05 0.00 86 1008.7
20260509161519 80 329 1.0 5.0 0.00 0.05 0.00 86 1008.7
20260509161419 80 329 1.0 5.0 0.00 0.05 0.00 87 1008.7
20260509161319 80 329 2.0 5.0 0.00 0.05 0.00 87 1008.7
20260509161220 80 329 2.0 5.0 0.00 0.05 0.00 87 1008.7
20260509161119 80 329 3.0 5.0 0.00 0.05 0.00 87 1008.7
20260509161020 80 329 3.0 5.0 0.00 0.05 0.00 87 1008.7
20260509160920 80 324 3.0 5.0 0.00 0.05 0.00 87 1008.7
20260509160820 80 14 1.0 3.0 0.00 0.05 0.00 87 1008.7
20260509160720 80 14 1.0 3.0 0.00 0.05 0.00 87 1008.8
20260509160620 80 14 1.0 3.0 0.00 0.05 0.00 87 1008.8
20260509160520 80 14 1.0 3.0 0.00 0.05 0.00 87 1008.8
20260509160420 80 14 1.0 4.0 0.00 0.05 0.00 87 1008.7
20260509160318 80 14 1.0 4.0 0.00 0.05 0.00 87 1008.8
20260509160220 80 14 2.0 4.0 0.00 0.05 0.00 87 1008.7
20260509160119 80 14 1.0 4.0 0.00 0.05 0.00 87 1008.8
20260509160019 80 14 1.0 4.0 0.00 0.05 0.00 87 1008.7
20260509155920 80 14 2.0 4.0 0.00 0.05 0.00 87 1008.7
20260509155821 80 14 2.0 4.0 0.00 0.05 0.00 87 1008.7
20260509155719 80 14 2.0 4.0 0.00 0.05 0.00 87 1008.7
20260509155618 80 14 2.0 4.0 0.00 0.05 0.00 87 1008.7
20260509155518 80 14 2.0 4.0 0.00 0.05 0.00 87 1008.7
20260509155418 80 14 2.0 4.0 0.00 0.05 0.00 87 1008.7
20260509155318 80 14 2.0 3.0 0.00 0.05 0.00 87 1008.7
20260509155218 80 13 1.0 3.0 0.00 0.05 0.00 87 1008.7
20260509155118 80 11 0.0 3.0 0.00 0.05 0.00 87 1008.7
20260509155019 80 11 1.0 3.0 0.00 0.05 0.00 88 1008.7
20260509154919 80 11 1.0 3.0 0.00 0.05 0.00 88 1008.6
20260509154819 80 13 2.0 3.0 0.00 0.05 0.00 88 1008.6
20260509154718 80 13 2.0 3.0 0.00 0.05 0.00 88 1008.6
20260509154619 80 13 2.0 4.0 0.00 0.05 0.00 89 1008.6
20260509154518 79 13 1.0 4.0 0.00 0.05 0.00 88 1008.6
20260509154419 79 13 1.0 4.0 0.00 0.05 0.00 88 1008.6
20260509154318 79 13 2.0 4.0 0.00 0.05 0.00 89 1008.6
20260509154218 80 13 1.0 4.0 0.00 0.05 0.00 89 1008.6
20260509154119 80 13 1.0 4.0 0.00 0.05 0.00 89 1008.6
20260509154019 79 13 1.0 4.0 0.00 0.05 0.00 89 1008.6
20260509153918 79 13 2.0 4.0 0.00 0.05 0.00 90 1008.6
20260509153818 79 13 3.0 4.0 0.00 0.05 0.00 90 1008.5
20260509153719 79 14 2.0 4.0 0.00 0.05 0.00 90 1008.6
20260509153619 79 354 2.0 3.0 0.00 0.05 0.00 90 1008.6
20260509153518 79 354 1.0 3.0 0.00 0.05 0.00 90 1008.6
20260509153420 79 353 1.0 3.0 0.00 0.05 0.00 90 1008.7
20260509153319 79 351 2.0 3.0 0.00 0.05 0.00 90 1008.8
20260509153218 79 214 2.0 3.0 0.00 0.05 0.00 90 1008.8
20260509153119 79 219 1.0 2.0 0.00 0.05 0.00 90 1008.8
20260509153018 79 204 0.0 2.0 0.00 0.05 0.00 91 1008.8
20260509152918 78 0 0.0 2.0 0.00 0.05 0.00 91 1008.7
20260509152818 78 286 0.0 2.0 0.00 0.05 0.00 91 1008.7
20260509152719 78 290 0.0 2.0 0.00 0.05 0.00 91 1008.7
20260509152618 78 295 1.0 3.0 0.00 0.05 0.00 91 1008.7
20260509152518 78 298 1.0 3.0 0.00 0.05 0.00 91 1008.7
20260509152420 78 298 1.0 3.0 0.00 0.05 0.00 92 1008.7
20260509152317 78 300 0.0 3.0 0.00 0.05 0.00 92 1008.6
20260509152219 78 303 0.0 3.0 0.00 0.05 0.00 92 1008.7
20260509152118 78 303 0.0 3.0 0.00 0.05 0.00 92 1008.7
20260509152020 78 305 1.0 3.0 0.00 0.05 0.00 92 1008.7
20260509151918 78 305 2.0 3.0 0.00 0.05 0.00 92 1008.7
20260509151818 78 303 2.0 3.0 0.00 0.05 0.00 92 1008.7
20260509151718 78 302 1.0 3.0 0.00 0.05 0.00 92 1008.8
20260509151619 78 300 1.0 3.0 0.00 0.05 0.00 92 1008.9
20260509151517 78 300 1.0 3.0 0.00 0.05 0.00 93 1008.9
20260509151417 78 298 1.0 3.0 0.00 0.05 0.00 92 1008.9
20260509151320 78 305 2.0 3.0 0.00 0.05 0.00 92 1008.9
20260509151218 78 306 2.0 3.0 0.00 0.05 0.00 92 1008.9
20260509151118 78 302 2.0 3.0 0.00 0.05 0.00 92 1008.8
20260509151017 78 303 2.0 3.0 0.00 0.05 0.00 93 1008.8
20260509150919 78 302 1.0 3.0 0.00 0.05 0.00 93 1008.9
20260509150819 77 303 2.0 3.0 0.00 0.05 0.00 93 1008.8
20260509150718 77 303 2.0 3.0 0.00 0.05 0.00 92 1008.7
20260509150618 77 302 2.0 3.0 0.00 0.05 0.00 93 1008.7
20260509150518 77 300 2.0 3.0 0.00 0.05 0.00 93 1008.7
20260509150417 77 302 1.0 3.0 0.00 0.05 0.00 93 1008.7
20260509150318 77 299 2.0 3.0 0.00 0.05 0.00 93 1008.7
20260509150218 77 292 2.0 3.0 0.00 0.05 0.00 93 1008.7
20260509150117 77 296 2.0 3.0 0.00 0.05 0.00 93 1008.7
20260509150017 77 299 2.0 3.0 0.00 0.05 0.00 93 1008.6
20260509145918 77 299 2.0 3.0 0.00 0.05 0.00 93 1008.6
20260509145817 77 299 2.0 3.0 0.00 0.05 0.00 93 1008.5
20260509145717 77 302 1.0 3.0 0.00 0.05 0.00 93 1008.5
20260509145618 77 299 2.0 3.0 0.00 0.05 0.00 94 1008.5
20260509145517 77 300 2.0 3.0 0.00 0.05 0.00 94 1008.5
20260509145417 77 298 2.0 3.0 0.00 0.05 0.00 94 1008.4
20260509145317 77 298 2.0 3.0 0.00 0.05 0.00 94 1008.4
20260509145218 77 299 1.0 3.0 0.00 0.05 0.00 94 1008.4
20260509145117 77 245 0.0 2.0 0.00 0.05 0.00 94 1008.4
20260509145018 77 244 1.0 2.0 0.00 0.05 0.00 94 1008.4
20260509144918 77 241 1.0 2.0 0.00 0.05 0.00 95 1008.4
20260509144817 77 241 1.0 2.0 0.00 0.05 0.00 94 1008.4
20260509144718 77 241 1.0 2.0 0.00 0.05 0.00 94 1008.4
20260509144617 77 244 0.0 2.0 0.00 0.05 0.00 95 1008.5
20260509144517 77 243 0.0 2.0 0.00 0.05 0.00 95 1008.4
20260509144418 77 243 0.0 2.0 0.00 0.05 0.00 95 1008.4
20260509144303 77 243 0.0 2.0 0.00 0.05 0.00 95 1008.4
20260509144204 77 243 1.0 2.0 0.00 0.05 0.00 95 1008.4
20260509144105 77 244 1.0 2.0 0.00 0.05 0.00 95 1008.4
20260509144002 77 241 0.0 0.0 0.00 0.05 0.00 95 1008.3
20260509143902 77 243 0.0 0.0 0.00 0.05 0.00 95 1008.3
20260509143802 76 245 0.0 0.0 0.00 0.05 0.00 96 1008.3
20260509143702 76 244 0.0 0.0 0.00 0.05 0.00 96 1008.4
20260509143602 76 247 0.0 0.0 0.00 0.05 0.00 96 1008.3
20260509143504 76 245 0.0 1.0 0.00 0.05 0.00 96 1008.4
20260509143403 76 248 0.0 2.0 0.00 0.05 0.00 96 1008.3
20260509143301 76 248 0.0 2.0 0.00 0.05 0.00 96 1008.4
20260509143203 76 248 0.0 2.0 0.00 0.05 0.00 96 1008.4
20260509143103 76 247 0.0 2.0 0.00 0.05 0.00 96 1008.4
20260509143002 76 245 0.0 2.0 0.00 0.05 0.00 96 1008.4
20260509142904 76 247 0.0 2.0 0.00 0.05 0.00 96 1008.5
20260509142803 76 245 0.0 2.0 0.00 0.05 0.00 96 1008.5
20260509142702 76 245 0.0 2.0 0.00 0.05 0.00 96 1008.5
20260509142602 76 245 1.0 2.0 0.00 0.05 0.00 96 1008.4
20260509142503 76 245 1.0 2.0 0.00 0.05 0.00 96 1008.4
20260509142403 76 245 1.0 2.0 0.00 0.05 0.00 96 1008.4
20260509142301 76 245 0.0 2.0 0.00 0.05 0.00 97 1008.4
20260509142203 76 247 0.0 2.0 0.00 0.05 0.00 97 1008.2
20260509142103 76 244 0.0 2.0 0.00 0.05 0.00 97 1008.1
20260509142004 76 245 0.0 2.0 0.00 0.05 0.00 97 1008.2
20260509141902 76 243 0.0 2.0 0.00 0.05 0.00 97 1008.2
20260509141802 76 244 1.0 2.0 0.00 0.05 0.00 97 1008.2
20260509141701 76 245 1.0 2.0 0.00 0.05 0.00 97 1008.2
20260509141601 76 245 0.0 2.0 0.00 0.05 0.00 97 1008.1
20260509141458 76 245 0.0 0.0 0.00 0.05 0.00 97 1008.1
20260509141354 76 244 0.0 0.0 0.00 0.05 0.00 97 1007.9
20260509141253 76 244 0.0 2.0 0.00 0.05 0.00 97 1007.9
20260509141149 76 245 0.0 2.0 0.00 0.05 0.00 97 1007.9
20260509141050 76 243 0.0 2.0 0.00 0.05 0.00 97 1007.9
20260509140945 76 244 0.0 3.0 0.00 0.05 0.00 97 1007.9
20260509140845 76 243 0.0 3.0 0.00 0.05 0.00 97 1007.9
20260509140742 76 241 0.0 3.0 0.00 0.05 0.00 97 1008.0
20260509140640 75 240 0.0 3.0 0.00 0.05 0.00 97 1008.0
20260509140539 75 241 0.0 3.0 0.00 0.05 0.00 97 1008.0
20260509140438 75 241 1.0 3.0 0.00 0.05 0.00 97 1008.1
20260509140336 75 241 2.0 3.0 0.00 0.05 0.00 97 1008.2
20260509140234 75 243 2.0 3.0 0.00 0.05 0.00 97 1008.1
20260509140133 75 243 2.0 3.0 0.00 0.05 0.00 97 1008.2
20260509140034 75 243 2.0 3.0 0.00 0.05 0.00 97 1008.1
20260509135931 76 243 1.0 3.0 0.00 0.05 0.00 98 1008.1
20260509135831 76 125 0.0 3.0 0.00 0.05 0.00 98 1008.0
20260509135732 76 125 0.0 6.0 0.00 0.05 0.00 98 1008.0
20260509135631 75 125 1.0 6.0 0.00 0.05 0.00 98 1008.0
20260509135530 75 125 1.0 6.0 0.00 0.05 0.00 98 1007.9
20260509135431 75 131 1.0 6.0 0.00 0.05 0.00 98 1008.0
20260509135330 76 149 1.0 6.0 0.00 0.05 0.00 98 1008.0
20260509135231 75 151 1.0 6.0 0.00 0.05 0.00 98 1008.0
20260509135128 75 149 2.0 6.0 0.00 0.05 0.00 98 1008.0
20260509135027 75 157 2.0 6.0 0.00 0.05 0.00 98 1008.1
20260509134926 75 162 3.0 6.0 0.00 0.05 0.00 98 1008.1
20260509134825 75 168 4.0 6.0 0.00 0.05 0.00 98 1008.1
20260509134723 75 164 3.0 6.0 0.00 0.05 0.00 98 1008.1
20260509134621 75 210 3.0 6.0 0.00 0.05 0.00 98 1008.2
20260509134520 76 203 4.0 7.0 0.00 0.05 0.00 98 1008.3
20260509134417 76 235 3.0 7.0 0.00 0.05 0.00 98 1008.3
20260509134317 76 214 3.0 7.0 0.00 0.05 0.00 98 1008.4
20260509134216 76 195 3.0 7.0 0.00 0.05 0.00 98 1008.4
20260509134116 75 121 4.0 7.0 0.00 0.05 0.00 98 1008.3
20260509134015 76 159 3.0 7.0 0.00 0.05 0.00 98 1008.3
20260509133917 76 180 3.0 7.0 0.00 0.05 0.00 98 1008.2
20260509133816 76 134 3.0 7.0 0.00 0.05 0.00 98 1008.1
20260509133715 76 164 4.0 7.0 0.00 0.05 0.00 98 1008.0
20260509133616 75 131 4.0 7.0 0.00 0.05 0.00 98 1008.0
20260509133515 75 116 3.0 5.0 0.00 0.05 0.00 98 1008.0
20260509133416 75 151 2.0 5.0 0.00 0.05 0.00 98 1008.0
20260509133315 75 114 2.0 5.0 0.00 0.05 0.00 98 1008.1
20260509133216 75 186 2.0 5.0 0.00 0.05 0.00 98 1008.1
20260509133116 75 142 2.0 5.0 0.00 0.05 0.00 98 1008.3
20260509133016 75 144 2.0 5.0 0.00 0.05 0.00 98 1008.4
20260509132917 75 154 3.0 5.0 0.00 0.05 0.00 98 1008.4
20260509132815 75 159 2.0 4.0 0.00 0.05 0.00 98 1008.5
20260509132715 75 135 0.0 3.0 0.00 0.05 0.00 99 1008.5
20260509132616 75 275 0.0 1.0 0.00 0.05 0.00 99 1008.5
20260509132516 75 275 0.0 1.0 0.00 0.05 0.00 98 1008.6
20260509132416 75 278 0.0 1.0 0.00 0.05 0.00 98 1008.6
20260509132315 75 275 0.0 1.0 0.00 0.05 0.00 98 1008.6
20260509132216 75 276 0.0 1.0 0.00 0.05 0.00 98 1008.6
20260509132116 75 274 0.0 1.0 0.00 0.05 0.00 98 1008.5
20260509132016 75 272 0.0 1.0 0.00 0.05 0.00 98 1008.5
20260509131917 75 262 0.0 2.0 0.00 0.05 0.00 98 1008.6
20260509131815 75 278 0.0 2.0 0.00 0.05 0.00 98 1008.6
20260509131715 75 293 0.0 3.0 0.00 0.05 0.00 98 1008.6
20260509131615 75 305 0.0 3.0 0.00 0.05 0.00 98 1008.5
20260509131515 74 309 0.0 3.0 0.00 0.05 0.00 98 1008.6
20260509131415 74 312 0.0 3.0 0.00 0.05 0.00 98 1008.6
20260509131315 74 313 0.0 3.0 0.00 0.05 0.00 98 1008.7
20260509131217 74 313 0.0 3.0 0.00 0.05 0.00 98 1008.7
20260509131116 74 313 0.0 3.0 0.00 0.05 0.00 98 1008.7
20260509131016 75 314 1.0 3.0 0.00 0.05 0.00 98 1008.8
20260509130915 75 314 2.0 3.0 0.00 0.05 0.00 98 1008.9
20260509130817 75 314 2.0 3.0 0.00 0.05 0.00 98 1008.9
20260509130715 75 314 1.0 2.0 0.00 0.05 0.00 98 1008.9
20260509130615 74 314 1.0 2.0 0.00 0.05 0.00 98 1008.9
20260509130516 74 314 1.0 2.0 0.00 0.05 0.00 98 1008.9
20260509130415 74 314 1.0 2.0 0.00 0.05 0.00 98 1008.9
20260509130315 74 314 0.0 1.0 0.00 0.05 0.00 98 1008.9
20260509130217 74 314 0.0 1.0 0.00 0.05 0.00 98 1008.9
20260509130115 74 314 0.0 1.0 0.00 0.05 0.00 98 1008.9
20260509130015 74 314 0.0 1.0 0.00 0.05 0.00 98 1009.0
20260509125915 74 314 0.0 2.0 0.00 0.05 0.00 98 1008.9
20260509125815 74 314 0.0 3.0 0.00 0.05 0.00 98 1008.9
20260509125714 74 314 0.0 3.0 0.00 0.05 0.00 98 1009.0
20260509125616 74 314 1.0 3.0 0.00 0.05 0.00 98 1008.9
20260509125515 74 314 0.0 3.0 0.00 0.05 0.00 98 1009.0
20260509125416 74 314 0.0 3.0 0.00 0.05 0.00 98 1009.0
20260509125314 74 314 0.0 3.0 0.00 0.05 0.00 98 1009.0
20260509125214 74 314 0.0 3.0 0.00 0.05 0.00 98 1009.0
20260509125116 74 314 1.0 3.0 0.00 0.05 0.00 98 1009.0
20260509125014 74 314 2.0 3.0 0.00 0.05 0.00 98 1009.0
20260509124914 74 314 2.0 3.0 0.00 0.05 0.00 98 1009.0
20260509124814 74 314 1.0 3.0 0.00 0.05 0.00 98 1008.9
20260509124716 74 314 1.0 3.0 0.00 0.05 0.00 98 1008.9
20260509124614 74 314 2.0 3.0 0.00 0.05 0.00 98 1008.8
20260509124515 74 306 1.0 3.0 0.00 0.05 0.00 98 1008.8
20260509124417 74 306 1.0 3.0 0.00 0.05 0.00 98 1008.8
20260509124315 74 306 1.0 3.0 0.00 0.05 0.00 98 1008.7
20260509124215 74 306 1.0 3.0 0.00 0.05 0.00 98 1008.8
20260509124115 74 306 1.0 3.0 0.00 0.05 0.00 98 1008.7
20260509124016 74 306 2.0 3.0 0.00 0.05 0.00 98 1008.7
20260509123914 74 306 2.0 3.0 0.00 0.05 0.00 98 1008.7
20260509123814 74 306 1.0 3.0 0.00 0.05 0.00 98 1008.6
20260509123716 74 306 1.0 3.0 0.00 0.05 0.00 98 1008.6
20260509123615 74 306 1.0 4.0 0.00 0.05 0.00 98 1008.7
20260509123515 74 306 2.0 4.0 0.00 0.05 0.00 98 1008.6
20260509123415 74 306 1.0 4.0 0.00 0.05 0.00 98 1008.6
20260509123315 74 306 1.0 4.0 0.00 0.05 0.00 98 1008.5
20260509123215 74 306 1.0 4.0 0.00 0.05 0.00 98 1008.5
20260509123114 74 306 1.0 4.0 0.00 0.05 0.00 98 1008.5
20260509123014 74 306 2.0 4.0 0.00 0.05 0.00 98 1008.4
20260509122914 74 306 2.0 4.0 0.00 0.05 0.00 98 1008.5
20260509122816 74 306 2.0 4.0 0.00 0.05 0.00 98 1008.5
20260509122715 74 306 3.0 4.0 0.00 0.05 0.00 98 1008.6
20260509122615 74 306 3.0 4.0 0.00 0.05 0.00 98 1008.5
20260509122513 74 306 3.0 4.0 0.00 0.05 0.00 98 1008.5
20260509122414 74 299 2.0 4.0 0.00 0.05 0.00 98 1008.4
20260509122316 74 299 2.0 4.0 0.00 0.05 0.00 98 1008.4
20260509122214 74 240 2.0 4.0 0.00 0.05 0.00 98 1008.3
20260509122115 74 240 3.0 4.0 0.00 0.05 0.00 98 1008.3
20260509122014 74 240 3.0 4.0 0.00 0.05 0.00 98 1008.3
20260509121913 74 221 2.0 4.0 0.00 0.05 0.00 98 1008.2
20260509121815 74 220 2.0 4.0 0.00 0.05 0.00 98 1008.2
20260509121714 74 204 2.0 4.0 0.00 0.05 0.00 98 1008.1
20260509121615 74 182 3.0 4.0 0.00 0.05 0.00 98 1008.1
20260509121514 74 189 2.0 4.0 0.00 0.05 0.00 98 1008.0
20260509121414 74 164 1.0 4.0 0.00 0.05 0.00 98 1008.0
20260509121313 74 165 1.0 4.0 0.00 0.05 0.00 98 1008.0
20260509121213 74 188 1.0 5.0 0.00 0.05 0.00 98 1008.1
20260509121114 74 219 2.0 5.0 0.00 0.05 0.00 98 1008.0
20260509121015 74 224 2.0 5.0 0.00 0.05 0.00 98 1008.0
20260509120915 74 223 2.0 5.0 0.00 0.05 0.00 98 1008.0
20260509120813 74 223 2.0 6.0 0.00 0.05 0.00 98 1008.0
20260509120713 74 223 2.0 6.0 0.00 0.05 0.00 98 1007.9
20260509120615 73 204 2.0 6.0 0.00 0.05 0.00 98 1007.9
20260509120514 73 203 3.0 6.0 0.00 0.05 0.00 98 1007.8
20260509120413 73 186 3.0 6.0 0.00 0.05 0.00 98 1007.9
20260509120313 73 195 4.0 6.0 0.00 0.05 0.00 98 1007.9
20260509120215 73 183 3.0 6.0 0.00 0.05 0.00 98 1007.9
20260509120114 73 175 3.0 6.0 0.00 0.05 0.00 98 1007.8
20260509120013 73 171 4.0 6.0 0.00 0.05 0.00 98 1007.9
20260509115915 73 172 4.0 6.0 0.00 0.05 0.00 98 1008.0
20260509115813 73 186 3.0 5.0 0.00 0.05 0.00 98 1008.0
20260509115713 73 164 3.0 5.0 0.00 0.05 0.00 98 1008.0
20260509115614 73 195 3.0 5.0 0.00 0.05 0.00 98 1008.0
20260509115513 73 179 2.0 4.0 0.00 0.05 0.00 98 1008.0
20260509115413 73 183 2.0 4.0 0.00 0.05 0.00 98 1008.0
20260509115313 73 179 2.0 4.0 0.00 0.05 0.00 98 1008.0
20260509115214 73 353 1.0 3.0 0.00 0.05 0.00 98 1007.9
20260509115113 73 0 0.0 2.0 0.00 0.05 0.00 98 1008.0
20260509115014 73 0 0.0 0.0 0.00 0.05 0.00 98 1008.0
20260509114915 73 0 0.0 0.0 0.00 0.05 0.00 98 1008.0
20260509114813 73 0 0.0 0.0 0.00 0.05 0.00 98 1008.0
20260509114713 73 0 0.0 2.0 0.00 0.05 0.00 98 1007.9
20260509114613 73 0 0.0 2.0 0.00 0.05 0.00 98 1008.0
20260509114514 73 0 0.0 2.0 0.00 0.05 0.00 98 1008.0
20260509114413 73 0 0.0 2.0 0.00 0.05 0.00 98 1008.0
20260509114314 73 0 0.0 3.0 0.00 0.05 0.00 98 1008.0
20260509114215 73 0 0.0 3.0 0.00 0.05 0.00 98 1008.1
20260509114113 73 0 0.0 4.0 0.00 0.05 0.00 98 1008.1
20260509114013 73 0 0.0 4.0 0.00 0.05 0.00 98 1008.2
20260509113914 73 0 0.0 4.0 0.00 0.05 0.00 98 1008.1
20260509113815 73 0 1.0 4.0 0.00 0.05 0.00 98 1008.1
20260509113713 73 0 1.0 4.0 0.00 0.05 0.00 98 1008.1
20260509113612 73 0 1.0 4.0 0.00 0.05 0.00 98 1008.1
20260509113513 73 0 1.0 4.0 0.00 0.05 0.00 98 1008.1
20260509113414 73 0 2.0 4.0 0.00 0.05 0.00 98 1008.2
20260509113314 73 0 2.0 4.0 0.00 0.05 0.00 98 1008.1
20260509113214 73 0 3.0 4.0 0.00 0.05 0.00 98 1008.2
20260509113115 73 0 2.0 3.0 0.00 0.05 0.00 98 1008.1
20260509113012 73 0 2.0 3.0 0.00 0.05 0.00 98 1008.1
20260509112912 73 0 1.0 3.0 0.00 0.05 0.00 98 1008.2
20260509112813 73 0 0.0 3.0 0.00 0.05 0.00 98 1008.3
20260509112712 73 0 0.0 3.0 0.00 0.05 0.00 98 1008.4
20260509112612 73 0 0.0 3.0 0.00 0.05 0.00 98 1008.4
20260509112512 73 0 0.0 3.0 0.00 0.05 0.00 98 1008.5
20260509112413 73 0 0.0 3.0 0.00 0.05 0.00 98 1008.5
20260509112310 73 0 1.0 3.0 0.00 0.05 0.00 98 1008.4
20260509112210 73 0 1.0 3.0 0.00 0.05 0.00 98 1008.5
20260509112109 73 0 1.0 3.0 0.00 0.05 0.00 98 1008.5
20260509112006 73 0 0.0 4.0 0.00 0.05 0.00 98 1008.5
20260509111904 73 0 0.0 4.0 0.00 0.05 0.00 98 1008.5
20260509111804 73 0 0.0 4.0 0.00 0.05 0.00 98 1008.5
20260509111704 73 0 0.0 6.0 0.00 0.05 0.00 98 1008.6
20260509111604 73 0 1.0 6.0 0.00 0.05 0.00 98 1008.6
20260509111504 73 0 2.0 6.0 0.00 0.05 0.00 98 1008.6
20260509111402 73 0 2.0 6.0 0.00 0.05 0.00 98 1008.7
20260509111301 73 0 2.0 6.0 0.00 0.05 0.00 98 1008.7
20260509111202 73 0 2.0 6.0 0.00 0.05 0.00 98 1008.8
20260509111104 73 0 2.0 6.0 0.00 0.05 0.00 98 1008.6
20260509111003 73 353 2.0 6.0 0.00 0.05 0.00 98 1008.6
20260509110903 73 353 4.0 6.0 0.00 0.05 0.00 98 1008.6
20260509110802 73 4 4.0 6.0 0.00 0.05 0.00 98 1008.6
20260509110703 73 350 4.0 5.0 0.00 0.05 0.00 98 1008.5
20260509110602 73 343 4.0 5.0 0.00 0.05 0.00 98 1008.5
20260509110503 73 0 3.0 5.0 0.00 0.05 0.00 98 1008.5
20260509110404 73 353 2.0 4.0 0.00 0.05 0.00 98 1008.5
20260509110302 73 353 3.0 4.0 0.00 0.05 0.00 98 1008.5
20260509110202 73 353 2.0 4.0 0.00 0.05 0.00 98 1008.5
20260509110103 73 0 2.0 4.0 0.00 0.05 0.00 98 1008.4
20260509110004 73 0 2.0 4.0 0.00 0.05 0.00 98 1008.4
20260509105902 73 0 3.0 4.0 0.00 0.05 0.00 98 1008.4
20260509105802 73 341 3.0 4.0 0.00 0.05 0.00 98 1008.3
20260509105703 73 344 3.0 4.0 0.00 0.05 0.00 98 1008.3
20260509105603 73 353 2.0 4.0 0.00 0.05 0.00 98 1008.3
20260509105504 73 353 3.0 4.0 0.00 0.05 0.00 98 1008.2
20260509105402 73 353 2.0 4.0 0.00 0.05 0.00 98 1008.2
20260509105306 73 18 2.0 3.0 0.00 0.05 0.00 98 1008.1
20260509105204 73 18 2.0 3.0 0.00 0.05 0.00 98 1008.1
20260509105103 73 18 2.0 3.0 0.00 0.05 0.00 98 1008.1
20260509105005 73 23 2.0 3.0 0.00 0.05 0.00 98 1008.0
20260509104903 73 23 2.0 3.0 0.00 0.05 0.00 98 1008.0
20260509104802 73 23 2.0 3.0 0.00 0.05 0.00 98 1008.0
20260509104702 73 24 2.0 3.0 0.00 0.05 0.00 98 1008.0
20260509104603 73 24 2.0 3.0 0.00 0.05 0.00 98 1008.0
20260509104504 73 24 2.0 3.0 0.00 0.05 0.00 98 1008.0
20260509104402 73 25 2.0 3.0 0.00 0.05 0.00 98 1008.0
20260509104304 73 56 1.0 3.0 0.00 0.05 0.00 98 1008.0
20260509104202 73 72 0.0 2.0 0.00 0.05 0.00 98 1007.9
20260509104108 73 72 0.0 1.0 0.00 0.05 0.00 98 1007.9
20260509104004 73 145 0.0 1.0 0.00 0.05 0.00 98 1007.9
20260509103903 73 145 0.0 1.0 0.00 0.05 0.00 98 1007.9
20260509103802 73 145 0.0 1.0 0.00 0.05 0.00 98 1007.9
20260509103659 73 145 0.0 1.0 0.00 0.05 0.00 98 1007.9
20260509103557 73 145 0.0 1.0 0.00 0.05 0.00 98 1008.0
20260509103456 73 145 0.0 3.0 0.00 0.05 0.00 98 1007.9
20260509103356 73 145 0.0 3.0 0.00 0.05 0.00 98 1007.9
20260509103253 73 145 0.0 3.0 0.00 0.05 0.00 98 1007.8
20260509103153 73 145 0.0 3.0 0.00 0.05 0.00 98 1007.9
20260509103050 73 145 0.0 3.0 0.00 0.05 0.00 98 1007.9
20260509102948 73 145 0.0 3.0 0.00 0.05 0.00 98 1007.8
20260509102848 73 145 0.0 3.0 0.00 0.05 0.00 98 1007.8
20260509102746 73 145 1.0 3.0 0.00 0.05 0.00 98 1007.9
20260509102644 73 145 1.0 3.0 0.00 0.05 0.00 98 1007.8
20260509102542 73 145 2.0 3.0 0.00 0.05 0.00 98 1007.9
20260509102441 73 172 2.0 3.0 0.00 0.05 0.00 98 1007.8
20260509102339 73 97 1.0 3.0 0.00 0.05 0.00 98 1007.7
20260509102239 73 97 1.0 3.0 0.00 0.05 0.00 98 1007.7
20260509102134 73 96 1.0 3.0 0.00 0.05 0.00 98 1007.6
20260509102032 73 96 1.0 3.0 0.00 0.05 0.00 98 1007.5
20260509101930 73 93 1.0 3.0 0.00 0.05 0.00 98 1007.6
20260509101832 73 92 1.0 3.0 0.00 0.05 0.00 98 1007.6
20260509101732 73 141 2.0 3.0 0.00 0.05 0.00 98 1007.6
20260509101633 73 147 2.0 3.0 0.00 0.05 0.00 98 1007.5
20260509101533 73 127 2.0 3.0 0.00 0.05 0.00 98 1007.5
20260509101432 73 137 2.0 3.0 0.00 0.05 0.00 98 1007.4
20260509101332 73 142 2.0 3.0 0.00 0.05 0.00 98 1007.4
20260509101230 73 142 2.0 3.0 0.00 0.05 0.00 98 1007.4
20260509101132 73 135 2.0 3.0 0.00 0.05 0.00 98 1007.4
20260509101030 73 90 1.0 3.0 0.00 0.05 0.00 98 1007.4
20260509100928 73 87 1.0 3.0 0.00 0.05 0.00 98 1007.4
20260509100827 73 87 1.0 3.0 0.00 0.05 0.00 98 1007.4
20260509100725 73 35 1.0 2.0 0.00 0.05 0.00 98 1007.4
20260509100624 73 35 1.0 2.0 0.00 0.05 0.00 98 1007.5
20260509100519 73 7 1.0 2.0 0.00 0.05 0.00 98 1007.4
20260509100419 73 338 1.0 2.0 0.00 0.05 0.00 98 1007.5
20260509100318 73 338 0.0 2.0 0.00 0.05 0.00 98 1007.4
20260509100218 73 338 1.0 2.0 0.00 0.05 0.00 98 1007.5
20260509100118 73 338 1.0 2.0 0.00 0.05 0.00 98 1007.5
20260509100016 73 338 1.0 2.0 0.00 0.05 0.00 98 1007.5
20260509095915 73 338 1.0 2.0 0.00 0.05 0.00 98 1007.4
20260509095815 73 338 1.0 2.0 0.00 0.05 0.00 98 1007.3
20260509095712 73 338 1.0 2.0 0.00 0.05 0.00 98 1007.3
20260509095611 73 338 0.0 2.0 0.00 0.05 0.00 98 1007.3
20260509095510 73 338 0.0 2.0 0.00 0.05 0.00 98 1007.3
20260509095411 73 338 1.0 2.0 0.00 0.05 0.00 98 1007.3
20260509095311 73 338 1.0 2.0 0.00 0.05 0.00 98 1007.3
20260509095210 73 338 0.0 2.0 0.00 0.05 0.00 98 1007.3
20260509095110 73 338 0.0 2.0 0.00 0.05 0.00 98 1007.2
20260509095010 73 338 0.0 2.0 0.00 0.05 0.00 98 1007.2
20260509094910 73 338 0.0 3.0 0.00 0.05 0.00 98 1007.2
20260509094810 73 338 0.0 3.0 0.00 0.05 0.00 98 1007.2
20260509094711 73 338 0.0 3.0 0.00 0.05 0.00 98 1007.2
20260509094610 73 338 0.0 3.0 0.00 0.05 0.00 98 1007.2
20260509094511 73 338 0.0 4.0 0.00 0.05 0.00 98 1007.2
20260509094412 73 338 0.0 4.0 0.00 0.05 0.00 98 1007.3
20260509094310 73 338 0.0 4.0 0.00 0.05 0.00 98 1007.4
20260509094211 73 338 1.0 4.0 0.00 0.05 0.00 98 1007.3
20260509094110 73 338 2.0 4.0 0.00 0.05 0.00 98 1007.3
20260509094013 73 338 2.0 4.0 0.00 0.05 0.00 98 1007.5
20260509093911 73 338 2.0 4.0 0.00 0.05 0.00 98 1007.5
20260509093810 73 338 2.0 4.0 0.00 0.05 0.00 98 1007.5
20260509093710 73 338 3.0 4.0 0.00 0.05 0.00 98 1007.5
20260509093611 73 338 3.0 4.0 0.00 0.05 0.00 98 1007.5
20260509093510 73 338 2.0 3.0 0.00 0.05 0.00 98 1007.5
20260509093410 73 338 2.0 3.0 0.00 0.05 0.00 98 1007.5
20260509093311 73 337 2.0 3.0 0.00 0.05 0.00 98 1007.5
20260509093211 73 337 1.0 3.0 0.00 0.05 0.00 98 1007.6
20260509093111 73 337 1.0 3.0 0.00 0.05 0.00 98 1007.6
20260509093011 73 337 2.0 3.0 0.00 0.05 0.00 98 1007.6
20260509092909 73 337 2.0 3.0 0.00 0.05 0.00 98 1007.7
20260509092810 73 337 2.0 3.0 0.00 0.05 0.00 98 1007.7
20260509092711 73 337 1.0 2.0 0.00 0.05 0.00 98 1007.7
20260509092611 73 337 1.0 2.0 0.00 0.05 0.00 98 1007.8
20260509092509 73 337 1.0 2.0 0.00 0.05 0.00 98 1007.7
20260509092409 73 337 1.0 2.0 0.00 0.05 0.00 98 1007.9
20260509092312 73 337 1.0 2.0 0.00 0.05 0.00 98 1008.0
20260509092210 73 337 1.0 2.0 0.00 0.05 0.00 98 1008.0
20260509092110 73 337 1.0 2.0 0.00 0.05 0.00 98 1008.0
20260509092010 73 337 1.0 2.0 0.00 0.05 0.00 98 1008.0
20260509091911 73 337 1.0 2.0 0.00 0.05 0.00 98 1007.9
20260509091810 73 337 1.0 2.0 0.00 0.05 0.00 98 1007.9
20260509091710 73 337 1.0 2.0 0.00 0.05 0.00 98 1007.9
20260509091610 73 337 0.0 2.0 0.00 0.05 0.00 98 1008.0
20260509091509 73 337 0.0 2.0 0.00 0.05 0.00 98 1008.0
20260509091410 73 337 0.0 3.0 0.00 0.05 0.00 98 1008.0
20260509091309 73 337 0.0 3.0 0.00 0.05 0.00 98 1007.9
20260509091211 73 337 0.0 3.0 0.00 0.05 0.00 98 1007.8
20260509091110 73 337 1.0 3.0 0.00 0.05 0.00 98 1007.8
20260509091010 73 337 1.0 3.0 0.00 0.05 0.00 98 1007.8
20260509090910 73 337 2.0 3.0 0.00 0.05 0.00 98 1007.8
20260509090809 73 337 2.0 3.0 0.00 0.05 0.00 98 1007.8
20260509090710 73 337 2.0 3.0 0.00 0.05 0.00 98 1007.8
20260509090610 73 337 2.0 3.0 0.00 0.05 0.00 98 1007.8
20260509090510 73 337 2.0 3.0 0.00 0.05 0.00 98 1007.8
20260509090409 73 337 2.0 3.0 0.00 0.05 0.00 98 1007.8
20260509090309 73 337 2.0 3.0 0.00 0.05 0.00 98 1007.9
20260509090211 73 341 3.0 3.0 0.00 0.05 0.00 98 1007.9
20260509090110 73 347 2.0 3.0 0.00 0.05 0.00 98 1007.9
20260509090009 73 353 2.0 3.0 0.00 0.05 0.00 98 1007.9
20260509085910 73 23 2.0 3.0 0.00 0.05 0.00 98 1007.8
20260509085809 73 23 2.0 3.0 0.00 0.05 0.00 98 1007.8
20260509085709 73 23 2.0 3.0 0.00 0.05 0.00 98 1007.8
20260509085609 73 23 2.0 3.0 0.00 0.05 0.00 97 1007.7
20260509085510 73 23 2.0 3.0 0.00 0.05 0.00 97 1007.7
20260509085409 73 72 1.0 2.0 0.00 0.05 0.00 97 1007.7
20260509085308 73 72 0.0 0.0 0.00 0.05 0.00 97 1007.6
20260509085211 73 72 0.0 0.0 0.00 0.05 0.00 98 1007.6
20260509085109 73 72 0.0 0.0 0.00 0.05 0.00 98 1007.6
20260509085009 73 72 0.0 0.0 0.00 0.05 0.00 98 1007.6
20260509084909 73 72 0.0 0.0 0.00 0.05 0.00 98 1007.6
20260509084811 73 72 0.0 0.0 0.00 0.05 0.00 98 1007.6
20260509084708 73 72 0.0 0.0 0.00 0.05 0.00 98 1007.6
20260509084609 73 72 0.0 0.0 0.00 0.05 0.00 98 1007.6
20260509084510 73 72 0.0 0.0 0.00 0.05 0.00 98 1007.7
20260509084408 73 72 0.0 0.0 0.00 0.05 0.00 98 1007.7
20260509084309 73 72 0.0 1.0 0.00 0.05 0.00 98 1007.6
20260509084210 73 72 0.0 1.0 0.00 0.05 0.00 98 1007.7
20260509084111 73 72 0.0 2.0 0.00 0.05 0.00 98 1007.7
20260509084008 73 72 0.0 2.0 0.00 0.05 0.00 98 1007.8
20260509083909 73 72 0.0 2.0 0.00 0.05 0.00 98 1007.7
20260509083809 73 72 0.0 2.0 0.00 0.05 0.00 98 1007.7
20260509083709 73 72 0.0 2.0 0.00 0.05 0.00 98 1007.7
20260509083608 73 72 0.0 2.0 0.00 0.05 0.00 98 1007.6
20260509083509 73 72 0.0 2.0 0.00 0.05 0.00 98 1007.6
20260509083410 73 72 0.0 2.0 0.00 0.05 0.00 98 1007.5
20260509083308 73 72 1.0 2.0 0.00 0.05 0.00 97 1007.6
20260509083208 73 72 1.0 2.0 0.00 0.05 0.00 97 1007.7
20260509083109 73 72 1.0 2.0 0.00 0.05 0.00 97 1007.7
20260509083008 73 72 1.0 2.0 0.00 0.05 0.00 97 1007.7
20260509082909 73 72 1.0 2.0 0.00 0.05 0.00 97 1007.6
20260509082809 73 72 1.0 2.0 0.00 0.05 0.00 97 1007.6
20260509082708 73 72 2.0 2.0 0.00 0.05 0.00 97 1007.6
20260509082609 73 72 1.0 2.0 0.00 0.05 0.00 98 1007.6
20260509082508 73 72 0.0 2.0 0.00 0.05 0.00 98 1007.6
20260509082409 73 72 0.0 0.0 0.00 0.05 0.00 98 1007.6
20260509082308 73 72 0.0 1.0 0.00 0.05 0.00 98 1007.6
20260509082208 73 72 0.0 1.0 0.00 0.05 0.00 98 1007.7
20260509082109 73 72 0.0 1.0 0.00 0.05 0.00 98 1007.7
20260509082009 73 72 0.0 1.0 0.00 0.05 0.00 98 1007.7
20260509081908 73 72 0.0 1.0 0.00 0.05 0.00 98 1007.7
20260509081808 73 72 0.0 1.0 0.00 0.05 0.00 98 1007.7
20260509081710 73 72 0.0 1.0 0.00 0.05 0.00 98 1007.7
20260509081609 73 72 0.0 1.0 0.00 0.05 0.00 98 1007.6
20260509081508 73 72 0.0 1.0 0.00 0.05 0.00 98 1007.6
20260509081409 73 72 0.0 2.0 0.00 0.05 0.00 98 1007.6
20260509081308 73 72 0.0 2.0 0.00 0.05 0.00 98 1007.6
20260509081208 73 72 0.0 2.0 0.00 0.05 0.00 98 1007.6
20260509081108 73 72 0.0 2.0 0.00 0.05 0.00 98 1007.6
20260509081011 73 72 0.0 2.0 0.00 0.05 0.00 98 1007.6
20260509080908 73 72 0.0 3.0 0.00 0.05 0.00 98 1007.7
20260509080811 73 72 0.0 3.0 0.00 0.05 0.00 98 1007.7
20260509080709 74 72 1.0 3.0 0.00 0.05 0.00 98 1007.7
20260509080609 74 72 1.0 3.0 0.00 0.05 0.00 98 1007.7
20260509080509 73 72 1.0 3.0 0.00 0.05 0.00 98 1007.7
20260509080409 73 72 1.0 3.0 0.00 0.05 0.00 98 1007.8
20260509080309 73 72 2.0 3.0 0.00 0.05 0.00 98 1007.7
20260509080208 73 72 2.0 3.0 0.00 0.05 0.00 98 1007.7
20260509080111 73 72 2.0 3.0 0.00 0.05 0.00 98 1007.6
20260509080011 73 72 2.0 3.0 0.00 0.05 0.00 98 1007.7
20260509075908 73 72 2.0 3.0 0.00 0.05 0.00 98 1007.7
20260509075807 73 72 1.0 3.0 0.00 0.05 0.00 98 1007.7
20260509075708 73 72 2.0 3.0 0.00 0.05 0.00 98 1007.7
20260509075610 73 72 2.0 3.0 0.00 0.05 0.00 98 1007.8
20260509075509 73 72 1.0 3.0 0.00 0.05 0.00 98 1007.7
20260509075409 73 72 0.0 3.0 0.00 0.05 0.00 98 1007.7
20260509075310 73 72 0.0 3.0 0.00 0.05 0.00 98 1007.7
20260509075209 73 72 0.0 3.0 0.00 0.05 0.00 98 1007.7
20260509075109 73 72 0.0 3.0 0.00 0.05 0.00 98 1007.7
20260509075008 73 72 0.0 3.0 0.00 0.05 0.00 98 1007.7
20260509074909 73 72 1.0 3.0 0.00 0.05 0.00 98 1007.7
20260509074808 73 72 2.0 3.0 0.00 0.05 0.00 98 1007.7
20260509074708 73 72 2.0 3.0 0.00 0.05 0.00 98 1007.7
20260509074609 73 72 2.0 3.0 0.00 0.05 0.00 98 1007.7
20260509074508 73 72 2.0 3.0 0.00 0.05 0.00 98 1007.7
20260509074408 73 72 2.0 3.0 0.00 0.05 0.00 98 1007.7
20260509074307 73 72 1.0 2.0 0.00 0.05 0.00 98 1007.8
20260509074205 73 72 0.0 2.0 0.00 0.05 0.00 97 1007.8
20260509074104 73 72 0.0 3.0 0.00 0.05 0.00 98 1007.8
20260509074003 73 72 0.0 3.0 0.00 0.05 0.00 98 1007.8
20260509073904 74 72 0.0 3.0 0.00 0.05 0.00 98 1007.9
20260509073802 74 72 1.0 3.0 0.00 0.05 0.00 98 1007.8
20260509073702 73 72 1.0 3.0 0.00 0.05 0.00 97 1007.9
20260509073602 74 72 2.0 3.0 0.00 0.05 0.00 98 1007.9
20260509073503 73 72 2.0 3.0 0.00 0.05 0.00 98 1007.9
20260509073402 73 72 2.0 3.0 0.00 0.05 0.00 98 1008.0
20260509073302 73 72 2.0 3.0 0.00 0.05 0.00 98 1007.9
20260509073203 73 72 2.0 3.0 0.00 0.05 0.00 98 1008.0
20260509073102 73 72 2.0 2.0 0.00 0.05 0.00 97 1008.0
20260509073002 73 72 1.0 2.0 0.00 0.05 0.00 98 1008.0
20260509072903 73 72 0.0 2.0 0.00 0.05 0.00 98 1008.0
20260509072803 73 72 0.0 2.0 0.00 0.05 0.00 98 1008.1
20260509072703 73 72 0.0 2.0 0.00 0.05 0.00 98 1008.1
20260509072602 73 72 0.0 2.0 0.00 0.05 0.00 98 1008.2
20260509072505 73 72 0.0 2.0 0.00 0.05 0.00 98 1008.2
20260509072402 73 72 0.0 2.0 0.00 0.05 0.00 98 1008.2
20260509072306 73 72 0.0 2.0 0.00 0.05 0.00 98 1008.2
20260509072204 73 72 0.0 2.0 0.00 0.05 0.00 98 1008.2
20260509072103 73 72 1.0 2.0 0.00 0.05 0.00 98 1008.2
20260509072004 73 72 1.0 2.0 0.00 0.05 0.00 98 1008.2
20260509071902 73 72 0.0 2.0 0.00 0.05 0.00 98 1008.2
20260509071802 73 72 0.0 0.0 0.00 0.05 0.00 98 1008.3
20260509071702 73 72 0.0 0.0 0.00 0.05 0.00 98 1008.2
20260509071601 73 72 0.0 0.0 0.00 0.05 0.00 98 1008.2
20260509071503 73 72 0.0 0.0 0.00 0.05 0.00 98 1008.2
20260509071402 73 72 0.0 0.0 0.00 0.05 0.00 98 1008.1
20260509071300 73 72 0.0 0.0 0.00 0.05 0.00 98 1008.2
20260509071200 73 72 0.0 0.0 0.00 0.05 0.00 98 1008.1
20260509071058 73 72 0.0 0.0 0.00 0.05 0.00 98 1008.2
20260509070955 73 72 0.0 0.0 0.00 0.05 0.00 98 1008.1
20260509070855 73 72 0.0 0.0 0.00 0.05 0.00 98 1008.0
20260509070752 73 72 0.0 0.0 0.00 0.05 0.00 98 1008.0
20260509070652 73 72 0.0 0.0 0.00 0.05 0.00 98 1008.0
20260509070553 73 72 0.0 0.0 0.00 0.05 0.00 98 1008.0
20260509070547 73 72 0.0 0.0 0.00 0.05 0.00 98 1008.0
20260509070526 73 72 0.0 0.0 0.00 0.05 0.00 98 1008.0
20260509070510 73 72 0.0 0.0 0.00 0.05 0.00 98 1008.0
20260509070140 73 72 0.0 0.0 0.00 0.05 0.00 98 1008.1
20260509070042 73 72 0.0 0.0 0.00 0.05 0.00 97 1007.9
20260509065940 73 72 0.0 0.0 0.00 0.05 0.00 97 1007.9
20260509065839 73 72 0.0 0.0 0.00 0.05 0.00 97 1007.9
20260509065738 73 72 0.0 0.0 0.00 0.05 0.00 98 1007.9
20260509065636 73 72 0.0 0.0 0.00 0.05 0.00 98 1007.9
20260509065532 73 72 0.0 0.0 0.00 0.05 0.00 98 1007.9
20260509065431 73 72 0.0 1.0 0.00 0.05 0.00 98 1007.9
20260509065332 73 72 0.0 1.0 0.00 0.05 0.00 98 1007.9
20260509065231 73 72 0.0 1.0 0.00 0.05 0.00 98 1007.9
20260509065131 73 72 0.0 1.0 0.00 0.05 0.00 98 1007.9
20260509065031 73 72 0.0 1.0 0.00 0.05 0.00 97 1007.9
20260509064931 73 72 0.0 1.0 0.00 0.05 0.00 98 1007.9
20260509064832 73 72 0.0 1.0 0.00 0.05 0.00 98 1007.9
20260509064730 73 72 0.0 1.0 0.00 0.05 0.00 97 1007.9
20260509064631 73 72 0.0 1.0 0.00 0.05 0.00 97 1007.9
20260509064532 73 72 0.0 1.0 0.00 0.05 0.00 97 1008.0
20260509064431 73 72 0.0 1.0 0.00 0.05 0.00 97 1008.0
20260509064332 73 72 0.0 1.0 0.00 0.05 0.00 97 1008.0
20260509064232 73 72 0.0 1.0 0.00 0.05 0.00 97 1008.0
20260509064131 73 72 0.0 1.0 0.00 0.05 0.00 98 1008.0
20260509064031 73 72 0.0 1.0 0.00 0.05 0.00 97 1008.0
20260509063932 73 72 0.0 1.0 0.00 0.05 0.00 97 1008.0
20260509063832 73 72 0.0 0.0 0.00 0.05 0.00 97 1008.0
20260509063731 73 72 0.0 0.0 0.00 0.05 0.00 97 1008.0
20260509063632 73 72 0.0 0.0 0.00 0.05 0.00 97 1008.0
20260509063530 73 72 0.0 0.0 0.00 0.05 0.00 97 1008.0
20260509063431 73 72 0.0 0.0 0.00 0.05 0.00 97 1008.2
20260509063333 73 72 0.0 0.0 0.00 0.05 0.00 97 1008.1
20260509063231 73 72 0.0 0.0 0.00 0.05 0.00 97 1008.0
20260509063131 73 72 0.0 0.0 0.00 0.05 0.00 97 1008.1
20260509063031 73 72 0.0 0.0 0.00 0.05 0.00 97 1008.1
20260509062932 73 72 0.0 0.0 0.00 0.05 0.00 97 1008.2
20260509062830 73 72 0.0 0.0 0.00 0.05 0.00 97 1008.1
20260509062729 73 72 0.0 0.0 0.00 0.05 0.00 97 1008.2
20260509062627 73 72 0.0 0.0 0.00 0.05 0.00 97 1008.3
20260509062515 73 72 0.0 0.0 0.00 0.05 0.00 97 1008.2
20260509062415 73 72 0.0 0.0 0.00 0.05 0.00 97 1008.2
20260509062313 73 72 0.0 0.0 0.00 0.05 0.00 97 1008.2
20260509062211 73 72 0.0 0.0 0.00 0.05 0.00 97 1008.3
20260509062110 73 72 0.0 0.0 0.00 0.05 0.00 97 1008.3
20260509062009 73 72 0.0 1.0 0.00 0.05 0.00 97 1008.3
20260509061908 73 72 0.0 2.0 0.00 0.05 0.00 97 1008.3
20260509061805 73 72 0.0 2.0 0.00 0.05 0.00 97 1008.2
20260509061705 73 72 0.0 2.0 0.00 0.05 0.00 97 1008.2
20260509061605 73 72 0.0 2.0 0.00 0.05 0.00 97 1008.2
20260509061505 73 72 0.0 2.0 0.00 0.05 0.00 97 1008.2
20260509061405 73 72 0.0 2.0 0.00 0.05 0.00 97 1008.1
20260509061306 73 72 0.0 2.0 0.00 0.05 0.00 97 1008.1
20260509061206 73 72 0.0 2.0 0.00 0.05 0.00 97 1008.1
20260509061106 73 72 0.0 2.0 0.00 0.05 0.00 97 1008.2
20260509061006 73 72 1.0 2.0 0.00 0.05 0.00 97 1008.2
20260509060905 73 72 1.0 2.0 0.00 0.05 0.00 97 1008.2
20260509060806 73 72 1.0 2.0 0.00 0.05 0.00 97 1008.3
20260509060705 73 72 1.0 2.0 0.00 0.05 0.00 97 1008.3
20260509060605 73 72 1.0 2.0 0.00 0.05 0.00 97 1008.4
20260509060506 73 72 2.0 2.0 0.00 0.05 0.00 97 1008.4
20260509060405 73 72 2.0 2.0 0.00 0.05 0.00 97 1008.4
20260509060305 73 72 1.0 2.0 0.00 0.05 0.00 97 1008.3
20260509060208 73 72 0.0 2.0 0.00 0.05 0.00 97 1008.5
20260509060106 73 72 0.0 2.0 0.00 0.05 0.00 97 1008.4
20260509060006 73 72 0.0 2.0 0.00 0.05 0.00 97 1008.4
20260509055905 73 72 0.0 2.0 0.00 0.05 0.00 97 1008.5
20260509055806 73 72 0.0 2.0 0.00 0.05 0.00 97 1008.5
20260509055704 73 72 0.0 3.0 0.00 0.05 0.00 97 1008.4
20260509055605 73 72 0.0 3.0 0.00 0.05 0.00 97 1008.4
20260509055506 73 72 1.0 3.0 0.00 0.05 0.00 97 1008.4
20260509055405 73 72 1.0 3.0 0.00 0.05 0.00 97 1008.4
20260509055307 73 72 1.0 3.0 0.00 0.05 0.00 97 1008.4
20260509055205 73 72 0.0 3.0 0.00 0.05 0.00 97 1008.4
20260509055107 73 72 1.0 3.0 0.00 0.05 0.00 97 1008.4
20260509055005 73 72 1.0 3.0 0.00 0.05 0.00 97 1008.3
20260509054905 73 72 2.0 3.0 0.00 0.05 0.00 97 1008.4
20260509054805 73 72 2.0 3.0 0.00 0.05 0.00 97 1008.4
20260509054705 73 72 2.0 3.0 0.00 0.05 0.00 97 1008.4
20260509054605 73 69 3.0 3.0 0.00 0.05 0.00 97 1008.3
20260509054505 73 103 2.0 4.0 0.00 0.05 0.00 97 1008.4
20260509054405 73 103 2.0 4.0 0.00 0.05 0.00 97 1008.3
20260509054304 73 103 2.0 4.0 0.00 0.05 0.00 97 1008.3
20260509054205 73 103 2.0 4.0 0.00 0.05 0.00 97 1008.3
20260509054106 73 104 2.0 4.0 0.00 0.05 0.00 97 1008.3
20260509054004 73 104 2.0 4.0 0.00 0.05 0.00 97 1008.3
20260509053904 73 104 2.0 4.0 0.00 0.05 0.00 97 1008.4
20260509053805 73 106 2.0 4.0 0.00 0.05 0.00 97 1008.4
20260509053705 73 104 3.0 4.0 0.00 0.05 0.00 97 1008.4
20260509053604 73 103 3.0 5.0 0.00 0.05 0.00 97 1008.5
20260509053505 73 106 2.0 5.0 0.00 0.05 0.00 97 1008.4
20260509053406 73 109 2.0 5.0 0.00 0.05 0.00 97 1008.4
20260509053305 73 109 1.0 5.0 0.00 0.05 0.00 97 1008.4
20260509053205 73 109 1.0 5.0 0.00 0.05 0.00 97 1008.4
20260509053104 73 109 2.0 5.0 0.00 0.05 0.00 97 1008.4
20260509053006 73 109 2.0 5.0 0.00 0.05 0.00 97 1008.4
20260509052905 73 110 3.0 5.0 0.00 0.05 0.00 97 1008.4
20260509052805 73 110 3.0 5.0 0.00 0.05 0.00 97 1008.5
20260509052705 73 109 4.0 5.0 0.00 0.05 0.00 97 1008.5
20260509052604 73 109 2.0 5.0 0.00 0.05 0.00 97 1008.5
20260509052505 73 116 1.0 5.0 0.00 0.05 0.00 97 1008.5
20260509052405 73 145 2.0 6.0 0.00 0.05 0.00 97 1008.5
20260509052307 73 145 3.0 6.0 0.00 0.05 0.00 97 1008.5
20260509052204 73 89 2.0 6.0 0.00 0.05 0.00 97 1008.5
20260509052104 73 111 2.0 6.0 0.00 0.05 0.00 97 1008.5
20260509052004 73 111 2.0 6.0 0.00 0.05 0.00 97 1008.5
20260509051905 73 111 2.0 6.0 0.00 0.05 0.00 97 1008.5
20260509051805 73 113 2.0 6.0 0.00 0.05 0.00 97 1008.5
20260509051705 73 113 3.0 6.0 0.00 0.05 0.00 97 1008.5
20260509051605 73 109 3.0 6.0 0.00 0.05 0.00 97 1008.5
20260509051504 73 113 2.0 6.0 0.00 0.05 0.00 97 1008.5
20260509051405 73 123 2.0 5.0 0.00 0.05 0.00 97 1008.5
20260509051304 73 102 2.0 5.0 0.00 0.05 0.00 97 1008.5
20260509051204 73 102 3.0 5.0 0.00 0.05 0.00 97 1008.4
20260509051106 73 100 2.0 5.0 0.00 0.05 0.00 97 1008.5
20260509051005 73 100 3.0 5.0 0.00 0.05 0.00 97 1008.5
20260509050904 73 107 3.0 5.0 0.00 0.05 0.00 97 1008.5
20260509050804 73 104 3.0 5.0 0.00 0.05 0.00 97 1008.4
20260509050704 73 97 3.0 5.0 0.00 0.05 0.00 97 1008.5
20260509050604 73 97 3.0 5.0 0.00 0.05 0.00 97 1008.5
20260509050504 73 80 3.0 5.0 0.00 0.05 0.00 97 1008.6
20260509050404 73 80 3.0 5.0 0.00 0.05 0.00 97 1008.5
20260509050303 73 89 4.0 5.0 0.00 0.05 0.00 97 1008.5
20260509050204 73 89 4.0 5.0 0.00 0.05 0.00 97 1008.5
20260509050105 73 89 4.0 5.0 0.00 0.05 0.00 97 1008.5
20260509050003 73 87 4.0 5.0 0.00 0.05 0.00 97 1008.5
20260509045903 73 106 3.0 5.0 0.00 0.05 0.05 97 1008.5
20260509045803 73 92 3.0 5.0 0.00 0.05 0.05 97 1008.6
20260509045702 73 92 4.0 5.0 0.00 0.05 0.05 97 1008.5
20260509045602 73 99 4.0 5.0 0.00 0.05 0.05 97 1008.6
20260509045503 73 102 3.0 4.0 0.00 0.05 0.05 97 1008.6
20260509045402 73 96 3.0 4.0 0.00 0.05 0.05 97 1008.5
20260509045301 73 92 2.0 4.0 0.00 0.05 0.05 97 1008.6
20260509045202 73 97 2.0 4.0 0.00 0.05 0.05 97 1008.6
20260509045102 73 97 1.0 4.0 0.00 0.05 0.05 97 1008.7
20260509045003 73 103 1.0 4.0 0.00 0.05 0.05 97 1008.6
20260509044839 73 102 2.0 4.0 0.00 0.05 0.05 97 1008.7
20260509044738 73 103 2.0 4.0 0.00 0.05 0.05 97 1008.7
20260509044635 73 102 2.0 4.0 0.00 0.05 0.05 97 1008.7
20260509044533 73 107 2.0 4.0 0.00 0.05 0.05 97 1008.6
20260509044434 73 144 2.0 4.0 0.00 0.05 0.05 97 1008.7
20260509044332 73 145 2.0 4.0 0.00 0.05 0.05 97 1008.7
20260509044231 73 107 1.0 1.0 0.00 0.05 0.05 97 1008.7
20260509044132 73 107 1.0 2.0 0.00 0.05 0.05 97 1008.7
20260509044032 73 107 1.0 2.0 0.00 0.05 0.05 97 1008.8
20260509043932 73 107 1.0 2.0 0.00 0.05 0.05 97 1008.7
20260509043833 73 107 1.0 2.0 0.00 0.05 0.05 97 1008.6
20260509043732 73 107 1.0 2.0 0.00 0.05 0.05 97 1008.8
20260509043632 73 107 1.0 2.0 0.00 0.05 0.05 97 1008.7
20260509043533 73 107 1.0 4.0 0.00 0.05 0.05 97 1008.8
20260509043432 73 107 1.0 5.0 0.00 0.05 0.05 97 1008.8
20260509043332 73 107 1.0 5.0 0.00 0.05 0.05 97 1008.8
20260509043232 73 107 1.0 5.0 0.00 0.05 0.05 97 1008.9
20260509043132 73 107 1.0 5.0 0.00 0.05 0.05 97 1008.8
20260509043033 73 107 1.0 5.0 0.00 0.05 0.05 97 1008.8
20260509042931 73 107 1.0 5.0 0.00 0.05 0.05 97 1008.8
20260509042832 73 103 3.0 5.0 0.00 0.05 0.05 97 1008.8
20260509042732 73 103 3.0 5.0 0.00 0.05 0.05 97 1008.8
20260509042632 73 103 3.0 5.0 0.00 0.05 0.05 97 1008.8
20260509042532 73 118 3.0 5.0 0.00 0.05 0.05 97 1008.8
20260509042432 73 104 2.0 5.0 0.00 0.05 0.05 97 1008.8
20260509042331 73 92 2.0 5.0 0.00 0.05 0.05 97 1008.7
20260509042233 73 90 2.0 5.0 0.00 0.05 0.05 97 1008.7
20260509042132 73 90 2.0 5.0 0.00 0.05 0.05 97 1008.6
20260509042031 73 90 2.0 5.0 0.00 0.05 0.05 97 1008.6
20260509041930 73 90 2.0 6.0 0.00 0.05 0.05 97 1008.6
20260509041830 73 90 2.0 6.0 0.00 0.05 0.05 97 1008.5
20260509041731 73 92 3.0 6.0 0.00 0.05 0.05 97 1008.5
20260509041632 72 92 3.0 6.0 0.00 0.05 0.05 97 1008.5
20260509041532 72 72 3.0 6.0 0.00 0.05 0.05 97 1008.6
20260509041431 73 72 3.0 6.0 0.00 0.05 0.05 97 1008.6
20260509041332 72 71 3.0 6.0 0.00 0.05 0.05 97 1008.5
20260509041232 72 68 2.0 6.0 0.00 0.05 0.05 97 1008.6
20260509041133 73 85 3.0 6.0 0.00 0.05 0.05 97 1008.5
20260509041030 72 86 4.0 6.0 0.00 0.05 0.05 97 1008.4
20260509040931 72 73 4.0 6.0 0.00 0.05 0.05 97 1008.3
20260509040831 72 71 3.0 6.0 0.00 0.05 0.05 97 1008.4
20260509040731 72 71 3.0 6.0 0.00 0.05 0.05 97 1008.4
20260509040632 72 80 4.0 6.0 0.00 0.05 0.05 97 1008.4
20260509040531 72 78 4.0 6.0 0.00 0.05 0.05 97 1008.3
20260509040432 72 82 4.0 6.0 0.00 0.05 0.05 97 1008.3
20260509040331 72 65 4.0 6.0 0.00 0.05 0.05 97 1008.3
20260509040231 72 83 4.0 6.0 0.00 0.05 0.05 97 1008.3
20260509040130 72 80 4.0 6.0 0.00 0.05 0.05 97 1008.2
20260509040032 72 90 4.0 5.0 0.00 0.05 0.05 97 1008.2
20260509035933 72 73 4.0 5.0 0.00 0.05 0.05 97 1008.1
20260509035832 72 75 4.0 5.0 0.00 0.05 0.05 97 1008.3
20260509035731 72 68 4.0 5.0 0.00 0.05 0.05 97 1008.2
20260509035632 72 78 4.0 5.0 0.00 0.05 0.05 97 1008.3
20260509035531 72 82 4.0 5.0 0.00 0.05 0.05 97 1008.3
20260509035431 72 79 4.0 5.0 0.00 0.05 0.05 97 1008.3
20260509035330 72 97 4.0 5.0 0.00 0.05 0.05 97 1008.2
20260509035233 72 102 4.0 5.0 0.00 0.05 0.05 97 1008.3
20260509035132 72 89 4.0 5.0 0.00 0.05 0.05 97 1008.2
20260509035032 72 89 4.0 5.0 0.00 0.05 0.05 97 1008.2
20260509034932 72 0 4.0 5.0 0.00 0.05 0.05 97 1008.2
20260509034831 72 75 4.0 5.0 0.00 0.05 0.05 97 1008.3
20260509034730 72 82 3.0 6.0 0.00 0.05 0.05 97 1008.3
20260509034620 72 80 3.0 6.0 0.00 0.05 0.05 97 1008.3
20260509034517 72 85 3.0 6.0 0.00 0.05 0.05 97 1008.4
20260509034416 72 103 2.0 6.0 0.00 0.05 0.05 97 1008.4
20260509034315 72 109 4.0 6.0 0.00 0.05 0.05 97 1008.4
20260509034214 72 96 4.0 6.0 0.00 0.05 0.05 97 1008.3
20260509034112 72 102 3.0 6.0 0.00 0.05 0.05 97 1008.4
20260509034012 72 96 2.0 6.0 0.00 0.05 0.05 97 1008.3
20260509033909 72 96 4.0 6.0 0.00 0.05 0.05 97 1008.3
20260509033809 72 83 4.0 6.0 0.00 0.05 0.05 97 1008.2
20260509033707 72 82 4.0 6.0 0.00 0.05 0.05 97 1008.2